              Height (m), 1500.0000, 1650.0000, 1800.0000, 1950.0000, 2100.0000, 2250.0000, 2400.0000, 2550.0000, 2700.0000, 2850.0000, 3000.0000, 3150.0000, 3300.0000, 3450.0000, 3600.0000, 3750.0000, 3900.0000, 4050.0000, 4200.0000, 4350.0000, 4500.0000, 4650.0000, 4800.0000, 4950.0000, 5100.0000, 5250.0000, 5400.0000, 5550.0000, 5700.0000, 5850.0000, 6000.0000, 6150.0000, 6300.0000, 6450.0000, 6600.0000, 6750.0000, 6900.0000, 7050.0000, 7200.0000, 7350.0000, 7500.0000, 7650.0000, 7800.0000, 7950.0000, 8100.0000, 8250.0000, 8400.0000, 8550.0000, 8700.0000, 8850.0000, 9000.0000, 9150.0000, 9300.0000, 9450.0000, 9600.0000, 9750.0000, 9900.0000,10050.0000,10200.0000,10350.0000,10500.0000,10650.0000,10800.0000,10950.0000,11100.0000,
 10-AUG-2000 00:00:24.00,    0.9187,    0.8939,    1.1324,    1.2495,    0.8998,    0.4666,   -0.2342,   -0.7916,   -0.9613,   -1.0622,  999.0000,  999.0000,  999.0000,  999.0000,  999.0000,  999.0000,   -0.6552,   -0.1703,    0.8830,    1.9242,  999.0000,  999.0000,    5.0051,    5.5101,  999.0000,  999.0000,  999.0000,  999.0000,  999.0000,    9.0584,    8.9142,    8.7633,    8.1797,  999.0000,    5.8507,    5.7637,    4.8903,    3.9932,    3.3692,    3.4832,  999.0000,  999.0000,  999.0000,    0.6449,    0.6626,    0.7723,    0.8733,    0.9731,    1.2252,    1.4322,    1.7551,    2.0824,    2.0922,    2.0998,    2.2973,    2.4729,    2.2102,    1.9915,    2.2828,    2.5428,    2.5535,    2.5708,    2.6280,    2.5722,   -1.3940,
 10-AUG-2000 00:05:28.00,  999.0000,  999.0000,  999.0000,  999.0000,  999.0000,  999.0000,  999.0000,  999.0000,  999.0000,  999.0000,  999.0000,  999.0000,  999.0000,  999.0000,  999.0000,  999.0000,  999.0000,  999.0000,  999.0000,  999.0000,  999.0000,  999.0000,  999.0000,  999.0000,  999.0000,  999.0000,  999.0000,  999.0000,  999.0000,  999.0000,  999.0000,  999.0000,  999.0000,  999.0000,  999.0000,  999.0000,  999.0000,  999.0000,  999.0000,  999.0000,  999.0000,  999.0000,  999.0000,  999.0000,  999.0000,  999.0000,  999.0000,  999.0000,  999.0000,  999.0000,  999.0000,  999.0000,  999.0000,  999.0000,  999.0000,  999.0000,  999.0000,  999.0000,  999.0000,  999.0000,  999.0000,  999.0000,  999.0000,  999.0000,  999.0000,
 10-AUG-2000 00:10:32.00,  999.0000,  999.0000,  999.0000,  999.0000,  999.0000,  999.0000,  999.0000,  999.0000,  999.0000,  999.0000,  999.0000,  999.0000,  999.0000,  999.0000,  999.0000,  999.0000,  999.0000,  999.0000,  999.0000,  999.0000,  999.0000,  999.0000,  999.0000,  999.0000,  999.0000,  999.0000,  999.0000,  999.0000,  999.0000,  999.0000,  999.0000,  999.0000,  999.0000,  999.0000,  999.0000,  999.0000,  999.0000,  999.0000,  999.0000,  999.0000,  999.0000,  999.0000,  999.0000,  999.0000,  999.0000,  999.0000,  999.0000,  999.0000,  999.0000,  999.0000,  999.0000,  999.0000,  999.0000,  999.0000,  999.0000,  999.0000,  999.0000,  999.0000,  999.0000,  999.0000,  999.0000,  999.0000,  999.0000,  999.0000,  999.0000,
 10-AUG-2000 00:15:36.00,  999.0000,  999.0000,  999.0000,  999.0000,  999.0000,  999.0000,  999.0000,  999.0000,  999.0000,  999.0000,  999.0000,  999.0000,  999.0000,  999.0000,  999.0000,  999.0000,  999.0000,  999.0000,  999.0000,  999.0000,  999.0000,  999.0000,  999.0000,  999.0000,  999.0000,  999.0000,  999.0000,  999.0000,  999.0000,  999.0000,  999.0000,  999.0000,  999.0000,  999.0000,  999.0000,  999.0000,  999.0000,  999.0000,  999.0000,  999.0000,  999.0000,  999.0000,  999.0000,  999.0000,  999.0000,  999.0000,  999.0000,  999.0000,  999.0000,  999.0000,  999.0000,  999.0000,  999.0000,  999.0000,  999.0000,  999.0000,  999.0000,  999.0000,  999.0000,  999.0000,  999.0000,  999.0000,  999.0000,  999.0000,  999.0000,
 10-AUG-2000 00:20:40.00,  999.0000,  999.0000,  999.0000,  999.0000,  999.0000,  999.0000,  999.0000,  999.0000,  999.0000,  999.0000,  999.0000,  999.0000,  999.0000,  999.0000,  999.0000,  999.0000,  999.0000,  999.0000,  999.0000,  999.0000,  999.0000,  999.0000,  999.0000,  999.0000,  999.0000,  999.0000,  999.0000,  999.0000,  999.0000,  999.0000,  999.0000,  999.0000,  999.0000,  999.0000,  999.0000,  999.0000,  999.0000,  999.0000,  999.0000,  999.0000,  999.0000,  999.0000,  999.0000,  999.0000,  999.0000,  999.0000,  999.0000,  999.0000,  999.0000,  999.0000,  999.0000,  999.0000,  999.0000,  999.0000,  999.0000,  999.0000,  999.0000,  999.0000,  999.0000,  999.0000,  999.0000,  999.0000,  999.0000,  999.0000,  999.0000,
 10-AUG-2000 00:23:11.00,    1.5784,    1.3688,    2.1661,    2.6692,    2.0416,    1.3739,    0.5781,   -0.0416,   -0.1849,   -0.2718,  999.0000,  999.0000,   -0.1402,   -0.4297,   -1.2987,   -1.6995,   -1.3894,   -0.6728,    0.5853,    1.4550,  999.0000,  999.0000,  999.0000,  999.0000,  999.0000,  999.0000,  999.0000,    6.8498,    7.3821,    7.9144,    8.0996,    8.0852,    7.6880,    7.0993,    6.3590,    5.5530,    5.1969,    5.0071,    4.5993,    4.1233,    3.0589,    1.8415,    1.2317,    0.7504,    0.5507,    0.3979,   -0.2413,   -0.9413,    0.1619,    0.5338,    0.8762,    1.5288,    1.6224,    1.7016,    1.4328,    1.2097,    1.8962,    2.5216,    2.4396,    2.2986,    1.6857,    1.0423,    0.2160,   -0.6995,   -2.0365,
 10-AUG-2000 00:28:15.00,    0.8360,    1.1694,    2.1934,    2.7829,    1.7018,    0.7691,    0.3112,   -0.1439,   -0.5915,   -0.6578,    0.1585,    0.6650,    0.5524,    0.6084,  999.0000,  999.0000,  999.0000,  999.0000,  999.0000,  999.0000,    3.0533,    3.5173,  999.0000,  999.0000,  999.0000,  999.0000,    6.4285,    6.7503,    7.3593,    7.9683,    8.1836,    8.1725,    7.8138,    7.2813,    6.7863,    6.3073,    5.8452,    5.3892,    5.3479,    5.5507,    4.3752,    2.8612,    2.2890,    1.9016,    1.7577,    1.6544,    0.9671,    0.2069,    0.3554,    0.5822,    0.9322,    1.2884,    1.2270,    1.1653,    1.4987,    1.8424,    2.3905,    2.9014,    2.9804,    2.9971,    2.5161,    1.9989,    1.2653,    0.4477,   -0.7667,
 10-AUG-2000 00:33:19.00,  999.0000,    1.4729,  999.0000,  999.0000,    1.2512,    1.1161,  999.0000,  999.0000,  999.0000,  999.0000,  999.0000,  999.0000,  999.0000,  999.0000,   -1.8648,   -2.0337,   -1.9562,   -1.4557,  999.0000,  999.0000,  999.0000,  999.0000,    3.8645,    4.6456,  999.0000,  999.0000,  999.0000,    6.5326,    7.2244,    7.9162,    8.3586,    8.6577,    8.4477,    7.9829,    7.7004,    7.4966,    6.7150,    5.7196,    5.0198,    4.4917,    2.9966,    3.0035,    2.3338,    1.6737,    1.4201,    1.2342,    0.7950,    0.3241,    0.0618,   -0.1826,    0.0822,    0.3724,    0.6505,    0.9259,    1.0428,    1.1603,    1.2874,    1.4282,    1.7277,    1.9192,    1.2473,    0.5616,   -0.2063,   -0.9962,   -1.8901,
 10-AUG-2000 00:38:25.00,    2.2462,    2.6149,    3.2600,    3.5328,    2.3742,    1.2946,    0.4681,   -0.1010,  999.0000,  999.0000,    0.2809,    0.1418,   -0.5297,   -0.8124,  999.0000,  999.0000,  999.0000,  999.0000,  999.0000,  999.0000,    1.9398,    2.4354,    3.0366,    3.7790,    4.6494,    5.4792,  999.0000,    5.8065,    6.7065,    7.6066,    7.9325,    7.9281,    7.7458,    7.4744,    7.2132,    7.0018,    6.1535,    5.1368,    4.7176,    4.4837,    3.8416,    3.0933,    2.5058,    1.9525,    1.5784,    1.2341,    0.7110,    0.1656,    0.1757,    0.2337,    0.4058,    0.5837,    0.9052,    1.2268,    1.4102,    1.5842,    1.5713,    1.5109,    0.9011,    0.3087,   -0.1443,   -0.6458,   -1.4373,   -2.2288,   -3.1915,
 10-AUG-2000 00:43:29.00,    3.4455,    3.6517,    3.6225,    3.3857,    2.3514,    1.3973,    0.6995,    0.1225,   -0.1277,   -0.1704,    0.2671,    0.4303,    0.0455,   -0.4877,   -1.2792,   -1.4814,  999.0000,  999.0000,    0.5967,    1.1603,    1.5729,    2.1775,  999.0000,  999.0000,  999.0000,  999.0000,  999.0000,    5.5490,    6.5398,    7.5306,    7.9298,    7.9886,    7.7736,    7.4217,    6.8951,  999.0000,  999.0000,    5.0887,    4.6084,    4.1662,    3.9818,    3.8645,    3.1609,    2.3333,    2.0972,    1.9596,    1.4208,    0.8318,    0.7803,    0.7751,    1.1772,    1.5997,    1.3983,    1.2027,    1.9781,    2.6900,    2.1380,    1.6026,    1.2586,    0.9129,    0.5529,    0.0797,   -1.0720,   -2.0921,  999.0000,
 10-AUG-2000 00:48:33.00,  999.0000,  999.0000,  999.0000,    3.4918,    2.4970,    1.5120,    0.5581,   -0.1082,  999.0000,  999.0000,    0.2254,    0.0755,   -0.5960,   -1.3284,   -2.1666,   -2.4183,  999.0000,  999.0000,  999.0000,  999.0000,    0.7782,    1.3585,    1.8778,    2.5639,  999.0000,  999.0000,    5.0765,    5.7423,    6.5427,    7.3431,    7.8648,    8.1549,    7.7038,    6.9339,    6.4140,    5.7303,  999.0000,    4.9906,    4.5352,    4.1001,    3.8887,    3.7355,    3.0807,    2.3197,    1.8763,    1.4857,    1.2543,    1.0429,    1.1742,    1.3351,    1.6341,    1.9400,    2.0348,    2.1341,    2.7157,    3.2447,    2.7234,    2.2117,    1.8125,    1.3921,    0.8026,    0.1147,   -1.1627,   -2.3712,   -3.2542,
 10-AUG-2000 00:53:37.00,  999.0000,  999.0000,  999.0000,    3.6077,    2.1843,    0.8926,    0.0222,   -0.4933,   -0.0485,    0.4730,    1.1723,    1.3700,  999.0000,  999.0000,   -1.0438,   -1.4343,   -1.1958,   -0.6600,    0.2718,    0.8305,    0.9519,    1.5357,  999.0000,  999.0000,    4.7175,    5.2872,  999.0000,  999.0000,  999.0000,  999.0000,  999.0000,    8.7811,    7.9654,    7.0987,    6.4490,    5.8930,    4.8547,    3.6380,    3.0732,    2.7122,    2.4933,    2.3114,    1.9151,    1.4735,    1.0398,    0.6076,    0.4484,    0.3233,    0.2767,    0.2368,    0.7920,    1.3769,    1.4525,    1.4004,    1.9030,    2.3459,    2.3920,    2.3816,    1.7165,    1.1129,    1.0008,    0.7599,   -0.2530,   -1.2142,   -1.9317,
 10-AUG-2000 00:58:41.00,    1.5683,    1.6916,  999.0000,  999.0000,    1.9637,    1.8830,    1.2540,    0.8520,    1.0641,    1.3098,    1.6331,    1.6356,  999.0000,  999.0000,   -0.2801,   -0.5490,   -0.2564,    0.1679,    0.7677,    1.2254,    1.5165,    2.1664,  999.0000,  999.0000,  999.0000,  999.0000,  999.0000,    7.4126,    8.4209,    9.4292,    9.8185,    9.8363,    9.2148,    8.3272,    7.5216,    6.7515,    5.5420,    4.1699,    3.4087,    2.8384,    2.6712,    2.6089,    2.3995,    2.1589,    1.4571,    0.6784,    0.4557,    0.3024,    0.1381,   -0.0271,    0.3363,    0.7262,  999.0000,  999.0000,    2.1226,    1.7423,    1.8088,    1.8108,    1.0672,    0.3942,    0.2859,    0.0803,   -0.7088,   -1.5585,   -2.6943,
 10-AUG-2000 01:03:51.00,    2.1704,    2.2716,  999.0000,  999.0000,  999.0000,  999.0000,  999.0000,  999.0000,  999.0000,  999.0000,  999.0000,  999.0000,  999.0000,  999.0000,   -0.5322,   -0.5008,   -0.0941,    0.3628,    0.8865,    1.2499,    1.4254,    1.9035,    2.6934,    4.0140,  999.0000,  999.0000,    9.4209,   10.1711,   10.1828,    9.9916,    9.6756,    9.2731,    8.4028,    7.5002,    6.8107,    6.2133,    5.1630,    3.9452,    3.4744,    3.2370,    2.9546,    2.6604,    2.7787,    2.9842,    2.5267,    1.9586,    1.6705,    1.4173,    1.1161,    0.8108,    0.9936,    1.2008,    1.1793,    1.1572,    1.2816,    1.4862,    1.6743,    1.7018,    1.2140,    0.7524,    0.5003,    0.1974,   -0.4095,   -1.0519,   -1.8617,
 10-AUG-2000 01:08:55.00,  999.0000,  999.0000,  999.0000,  999.0000,    1.9082,    1.7127,    1.4085,    1.2090,  999.0000,  999.0000,    1.4614,    1.4199,  999.0000,  999.0000,  999.0000,  999.0000,   -0.0431,   -0.0364,  999.0000,  999.0000,  999.0000,  999.0000,    1.9897,    2.3254,  999.0000,  999.0000,  999.0000,    7.7191,    8.3660,    9.0128,    9.0498,    8.7359,    7.9916,    7.0321,    6.2655,    5.5822,    4.4593,    3.1738,    2.6269,    2.3107,    1.8622,    1.3792,    1.6151,    2.0029,    1.8523,    1.6119,    1.4499,    1.2978,    1.1909,    1.0880,    0.9248,    0.7585,    1.1055,    1.4516,    1.2852,  999.0000,  999.0000,    0.7043,    0.3777,    0.0516,   -0.2702,   -0.6117,   -1.0715,   -1.5183,   -1.9036,
 10-AUG-2000 01:13:59.00,  999.0000,  999.0000,  999.0000,  999.0000,  999.0000,  999.0000,    0.5983,    1.0093,    1.4204,    1.7079,    1.7094,    1.5879,    1.2207,    0.9836,  999.0000,  999.0000,  999.0000,  999.0000,  999.0000,  999.0000,    0.9068,    0.8926,  999.0000,  999.0000,  999.0000,  999.0000,  999.0000,    7.3441,    7.7233,    8.1025,    8.0226,    7.6787,    6.7614,    5.5573,    4.9255,    4.5408,    3.6084,    2.4736,    1.7098,    1.0621,    0.5031,   -0.0327,    0.2685,    0.7468,    1.0179,    1.2544,    0.8760,    0.4206,    0.4446,    0.5099,    0.7005,    0.8974,    1.0433,    1.1833,    1.0027,    0.8349,    0.9220,    0.9613,    0.4465,   -0.0121,   -0.0229,   -0.1159,   -0.7015,   -1.3466,   -2.2723,
 10-AUG-2000 01:19:03.00,  999.0000,  999.0000,  999.0000,  999.0000,  999.0000,  999.0000,    1.0510,    1.0774,    1.5061,    1.7868,    1.7254,    1.4300,  999.0000,  999.0000,   -0.8587,   -1.0025,  999.0000,  999.0000,  999.0000,  999.0000,  999.0000,  999.0000,  999.0000,  999.0000,  999.0000,  999.0000,    7.7597,    7.8042,    8.0197,    8.1529,    7.9413,    7.7264,    6.9174,    5.6913,    5.1314,    4.9500,    4.0867,    2.9147,    2.1306,    1.4192,    1.1268,    0.9434,    0.8916,    0.8676,    1.5566,    2.3644,    2.1162,    1.7361,    1.5825,    1.4485,    1.5585,    1.6807,    1.9194,    2.1549,    2.0829,    2.0103,    1.9251,    1.8316,    1.6429,    1.4463,    1.1865,    0.7958,   -0.3790,   -1.4632,   -2.1199,
 10-AUG-2000 01:24:08.00,    2.4472,    2.8808,    3.4002,    3.5762,    2.4321,    1.4550,    1.0118,    0.8884,    1.6301,    2.0240,    1.6129,    1.2101,    0.8239,    0.5462,  999.0000,  999.0000,    0.2784,    0.2143,    0.1836,    0.4459,  999.0000,  999.0000,    2.2629,    3.4305,    5.1085,    4.3315,    5.3380,    6.3445,    6.5684,    6.2772,    5.9543,  999.0000,    5.1355,    4.8332,    4.1873,    2.6383,  999.0000,    2.0325,    1.3106,    0.6032,    0.5212,    0.4631,    0.2460,   -0.0210,    0.7178,    1.6241,    1.7000,    1.6722,    1.7106,    1.7549,    1.6732,    1.5853,    1.7157,    1.8441,    1.6263,    1.4102,    1.2268,    1.0300,    0.6784,    0.3632,    0.3385,    0.0888,   -1.5094,   -2.9137,   -3.4022,
 10-AUG-2000 01:29:12.00,    2.5411,    2.5520,    3.0845,    3.3129,    2.3723,    1.5159,    0.9293,    0.6440,    1.1736,    1.6104,    1.8328,    1.7795,    1.1753,    0.5514,   -0.1069,   -0.3317,  999.0000,  999.0000,    0.9696,    1.4205,    1.8916,    2.3292,  999.0000,  999.0000,  999.0000,    3.9487,    4.7315,    5.5284,    5.6641,    5.2435,    5.3453,    5.8173,    5.8944,    5.8511,    5.0766,    3.9862,    3.2187,    2.5707,    2.0003,    0.9013,  999.0000,    0.4517,    0.0687,   -0.2903,    0.5280,    1.5425,    1.7296,    1.8133,    1.9136,    2.0153,    1.9839,    1.9459,    1.8820,    1.8126,    1.4307,    1.0685,    1.1018,    1.0925,    0.5897,    0.1240,   -0.0455,   -0.3529,   -1.4871,   -2.5466,   -3.2539,
 10-AUG-2000 01:34:16.00,    2.7384,    2.6591,  999.0000,  999.0000,    2.1895,    1.8880,    1.1229,    0.8001,    1.6735,    2.1697,  999.0000,  999.0000,    1.0396,    0.8291,  999.0000,  999.0000,    1.0639,    0.8577,    0.2725,    0.3146,  999.0000,  999.0000,    2.6450,    3.2202,    3.6122,    3.8292,  999.0000,    4.5005,    4.8274,  999.0000,  999.0000,    6.0282,    6.2056,    6.2395,    5.4878,    4.3968,    3.8655,    3.5411,    2.9285,    2.2257,    1.8594,    1.5805,    1.4421,    1.2049,    1.6913,    2.3047,    2.4299,    2.4964,    2.3675,    2.2218,    2.2871,    2.3628,    1.9425,    1.5162,    1.2122,    0.9123,    0.6953,    0.4437,   -0.2075,   -0.8003,   -0.9261,   -1.1726,   -2.1419,   -3.0246,   -3.4978,
 10-AUG-2000 01:39:20.00,  999.0000,  999.0000,  999.0000,  999.0000,    2.2604,    1.9643,    1.0719,    0.3784,  999.0000,  999.0000,  999.0000,  999.0000,  999.0000,  999.0000,   -0.7096,   -0.7052,  999.0000,  999.0000,    0.0365,    0.3626,  999.0000,  999.0000,    1.6178,    1.8667,    2.1002,    2.5983,    2.9396,    3.1632,    3.3484,    3.5082,    4.1751,    5.1393,    5.5331,    5.8279,    5.3624,    4.5988,    4.0965,    3.6908,    2.6443,    1.3976,    0.9353,    0.6772,    1.1779,  999.0000,  999.0000,    1.7617,    2.0033,    2.2371,    2.0278,    1.7803,    1.6846,    1.5964,    1.2542,    0.9077,    0.6328,    0.3193,    0.2122,   -0.0159,   -0.4999,   -1.0024,   -1.6532,   -2.3389,   -3.2336,   -4.0537,   -4.5220,
 10-AUG-2000 01:44:24.00,  999.0000,    3.8377,  999.0000,  999.0000,  999.0000,  999.0000,    1.4337,    1.2003,    1.6363,    1.8705,    1.6379,    1.2346,  999.0000,  999.0000,   -0.9993,   -1.2950,  999.0000,  999.0000,  999.0000,  999.0000,    0.6361,    1.0208,  999.0000,  999.0000,    0.6282,    0.9001,    1.3792,    2.0136,    2.5426,    3.0022,    3.6606,  999.0000,    5.8485,    6.0265,    5.6646,    4.8000,    4.1877,    3.6685,    2.7108,    1.6161,    1.2055,    0.9729,    0.9581,    0.9892,    1.1525,    1.3377,    1.4720,    1.5999,    1.5149,    1.4116,    1.2847,    1.1567,    0.7655,    0.3727,  999.0000,  999.0000,  999.0000,   -0.9332,   -1.4437,   -1.9377,   -2.3007,   -2.7813,   -4.0417,   -5.0852,   -5.1936,
 10-AUG-2000 01:49:29.00,    4.3647,    4.6576,  999.0000,  999.0000,    2.6585,    2.0620,    1.6890,    1.5683,    2.1301,    2.3392,  999.0000,  999.0000,  999.0000,  999.0000,   -0.6964,   -0.9607,  999.0000,  999.0000,  999.0000,  999.0000,  999.0000,  999.0000,    0.8339,    1.1101,    1.0667,    1.3487,    1.7875,    2.4347,    2.8995,    3.2717,    3.5642,    3.8237,    4.2527,    4.7576,    4.7761,    4.5845,    4.1456,    3.6153,    2.7500,    1.7800,    1.5807,    1.5818,    1.4977,    1.3956,    1.5987,    1.8527,    1.7679,    1.6408,    1.7310,    1.8400,    1.5370,    1.2134,    0.7163,    0.2273,    0.4135,    0.5505,   -0.2929,   -1.1189,   -1.7425,   -2.3208,   -2.5363,   -2.7776,  999.0000,  999.0000,  999.0000,
 10-AUG-2000 01:54:33.00,  999.0000,  999.0000,  999.0000,  999.0000,  999.0000,  999.0000,    1.2724,    1.4288,    2.1032,    2.4047,  999.0000,  999.0000,    0.7194,    0.2164,   -0.1844,   -0.4124,  999.0000,  999.0000,  999.0000,  999.0000,   -0.2393,   -0.0161,  999.0000,  999.0000,  999.0000,    1.8406,    2.0077,    2.1747,    2.4263,  999.0000,  999.0000,    3.4777,    4.0820,    4.8071,    5.1180,    5.2383,    4.6916,    3.8983,    2.9928,    2.0522,    1.6717,    1.4368,    1.4302,    1.4720,    1.7134,    1.9881,    1.7394,    1.4253,    1.2089,    1.0009,    0.6126,    0.2153,   -0.0800,   -0.3691,   -0.3771,   -0.4236,   -1.2393,   -2.0339,   -2.5857,   -3.0969,   -3.2845,   -3.4688,  999.0000,  999.0000,  999.0000,
 10-AUG-2000 01:59:37.00,    4.4800,    4.9407,    4.4609,    3.9246,    3.1712,    2.4495,    1.8292,    1.5387,    2.1399,    2.4918,    2.2665,    2.1257,  999.0000,  999.0000,  999.0000,  999.0000,  999.0000,  999.0000,  999.0000,  999.0000,  999.0000,  999.0000,  999.0000,  999.0000,  999.0000,    1.4662,    1.9496,    2.4260,    2.6835,    2.7969,    3.0148,  999.0000,  999.0000,    3.9903,    4.4065,    4.8457,    4.3130,    3.4211,    2.3882,    1.3113,    0.9412,    0.7549,    0.7584,    0.8021,    1.2636,    1.7947,    1.5122,    1.1280,    0.9287,    0.7454,    0.8585,    0.9865,    0.4997,    0.0152,    0.2731,    0.4842,   -0.2389,   -0.9834,   -1.9744,   -2.8403,   -2.7072,   -2.5506,   -2.2533,   -2.1943,   -3.2608,
 10-AUG-2000 02:04:41.00,    4.1082,    4.2808,  999.0000,  999.0000,    2.9313,    2.3973,    1.5941,    1.1543,    1.6970,    1.8913,  999.0000,  999.0000,    0.0546,   -0.3035,  999.0000,  999.0000,  999.0000,  999.0000,  999.0000,  999.0000,  999.0000,  999.0000,  999.0000,  999.0000,    1.0504,    1.6628,    2.4593,    3.2194,    3.7314,    4.0802,    3.9909,    3.5431,    3.4922,    3.7035,    4.0536,    4.5116,    4.2979,    3.8360,    2.8574,    1.7173,    1.3162,    1.1073,    1.2095,    1.3775,    1.7715,    2.2032,    2.0187,    1.7572,    1.4030,    1.0409,    0.8989,    0.7679,    0.1007,   -0.5623,   -0.4282,   -0.3333,   -1.0224,   -1.6893,   -2.0993,   -2.4822,   -2.6501,   -2.7567,   -2.4965,   -2.4700,   -3.5467,
 10-AUG-2000 02:09:50.00,    4.8486,    5.3799,  999.0000,  999.0000,  999.0000,  999.0000,    1.7884,    1.3944,    1.8771,    2.0990,    1.7172,    1.3291,    0.9282,    0.6935,    0.7477,    0.8413,    0.9949,    0.8920,    0.4472,    0.1527,    0.0342,   -0.1037,   -0.2617,    0.0608,  999.0000,    0.5392,    1.4196,    2.3104,    3.1072,    3.8421,    4.0995,    3.8369,  999.0000,    4.1222,    4.4972,    4.9848,    4.4414,    3.5169,    2.4372,    1.3090,    0.8136,    0.4827,    0.7717,    1.1918,    1.6373,    2.0871,    1.7065,    1.2221,    1.2118,    1.3097,    1.1764,    0.9108,    0.3286,   -0.2505,   -0.2278,   -0.2375,   -0.8942,   -1.5623,   -2.3634,   -3.1578,   -3.8987,   -4.4440,   -3.8179,   -3.4370,   -4.2136,
 10-AUG-2000 02:14:54.00,    4.0057,    3.9196,    4.0556,    3.9933,    3.1682,    2.3706,    1.6611,    1.2276,    1.5407,    1.7973,    1.9231,    1.7157,    0.8423,    0.1661,   -0.1674,   -0.3407,  999.0000,  999.0000,   -0.1300,    0.0976,  999.0000,  999.0000,  999.0000,  999.0000,  999.0000,  999.0000,  999.0000,  999.0000,    3.8052,    3.9743,  999.0000,  999.0000,    4.0335,    4.0094,    4.7628,    5.5529,    5.3458,    4.7701,    3.5324,    2.0878,    1.4667,    1.0598,    1.1192,    1.2774,    1.2704,    1.2360,    1.0581,    0.8622,  999.0000,  999.0000,  999.0000,    0.1432,   -0.4590,   -1.0580,   -1.0763,   -1.1245,   -1.7678,   -2.4313,   -3.3276,   -4.1742,   -4.6240,   -5.0043,   -4.9686,   -4.9368,   -4.9233,
 10-AUG-2000 02:19:58.00,    3.7128,    3.9364,    4.6635,    5.0158,    3.9274,    2.9146,    2.1436,    1.6444,    1.8799,    1.9212,    1.5131,    1.0644,    0.5348,    0.1773,    0.1188,    0.0725,  999.0000,  999.0000,  999.0000,  999.0000,  999.0000,  999.0000,   -0.1221,    0.0993,  999.0000,  999.0000,    1.4422,    2.0472,    2.7626,    3.1123,  999.0000,    3.2563,    3.2886,    3.3493,    3.8451,    4.5289,    4.4679,    4.1316,    3.0491,    1.7335,    1.0170,    0.5971,    0.6300,    1.0948,    1.2314,    1.3679,    0.9244,    0.4083,    0.6884,    1.0370,    0.8216,    0.5780,   -0.3137,   -1.2013,   -1.1949,   -1.2180,   -1.8281,   -2.4646,   -3.4073,   -4.2872,   -4.6654,   -4.9742,   -4.8675,   -4.8043,   -4.9467,
 10-AUG-2000 02:25:02.00,  999.0000,  999.0000,  999.0000,    4.7730,  999.0000,  999.0000,    2.2472,    1.8664,    2.7325,    3.1867,    2.6878,    2.3137,  999.0000,  999.0000,  999.0000,  999.0000,  999.0000,  999.0000,    1.4407,    1.4015,  999.0000,  999.0000,  999.0000,  999.0000,    0.9573,    1.1588,    1.6180,    2.2706,    2.6097,    2.7424,    2.7977,    2.8083,    3.0985,    3.5285,    3.9698,    4.4159,    4.0364,    3.3517,    2.4181,    1.4067,    0.5116,  999.0000,  999.0000,    1.4582,    1.6870,    1.9329,    1.7889,    1.5961,    1.8728,    2.1899,    1.2904,    0.3301,   -0.2462,   -0.8059,   -0.3028,   -0.2091,   -0.7727,   -1.6851,   -2.7357,   -3.7071,   -4.0459,   -4.2929,   -3.9897,   -3.8678,   -4.6024,
 10-AUG-2000 02:30:06.00,    3.7280,    3.9366,    4.3842,    4.5891,    3.8605,    3.1177,    2.3292,    1.9360,    2.6119,    3.0000,    2.7220,    2.3245,    1.6881,    1.1533,    0.7949,    0.7187,    1.0713,    1.2790,    1.2936,    0.8400,   -0.1621,   -0.4700,   -0.0618,    0.3584,    0.1538,    0.3898,    0.8506,    1.4802,    1.9494,    2.3132,    2.5276,    2.6560,    2.7286,    2.7733,    3.1440,    3.6555,    3.3609,    2.7683,    1.7579,    0.4067,   -0.3481,   -0.8792,   -1.0718,   -1.0354,   -0.7002,   -0.0587,   -0.4982,   -1.0430,   -0.9398,   -0.7808,   -0.9804,   -1.1978,   -1.7659,   -2.3310,  999.0000,  999.0000,  999.0000,   -2.8036,   -4.1005,   -5.2938,   -5.6597,   -5.9904,   -6.1106,   -6.2134,   -6.2342,
 10-AUG-2000 02:35:10.00,    3.8589,    4.0646,    4.4537,    4.5584,    3.5694,    2.8397,  999.0000,  999.0000,    3.1382,    3.1498,    2.9582,    2.4914,    1.4746,    0.6962,    0.3319,    0.1791,    0.3473,    0.3863,  999.0000,  999.0000,  999.0000,  999.0000,   -0.2793,   -0.3053,   -0.3173,    0.1374,    0.6796,    1.2876,    1.8955,    2.5033,    2.8312,    2.9980,    3.2886,    3.6412,    4.2877,    5.0611,    4.9951,    4.6186,    3.6695,  999.0000,    0.9078,    0.5267,  999.0000,  999.0000,  999.0000,    1.6139,    1.1835,    0.6563,    0.9389,    1.2914,    1.0338,    0.7457,    0.2179,   -0.4078,   -0.1397,   -0.0194,   -0.5728,   -1.1746,   -2.3378,   -3.4317,   -3.9721,   -4.4841,   -4.8261,   -5.1639,   -5.4818,
 10-AUG-2000 02:40:15.00,    3.2016,    3.5172,    4.2179,    4.5877,  999.0000,  999.0000,    1.8798,    1.4969,    2.5195,    3.1974,    3.0774,    2.7252,    1.9089,    1.1829,    0.6138,    0.2663,  999.0000,  999.0000,    0.2334,    0.2335,    0.2467,    0.4435,  999.0000,  999.0000,    0.4726,    0.6204,    0.9637,    1.4536,    1.7791,    1.9964,    2.3905,    2.8863,    3.3855,    3.8865,    4.5281,    5.2304,    5.1220,    4.7138,    3.5328,    2.1101,    1.2454,    0.5257,    0.3458,    0.2800,    0.4665,    0.6950,    0.4392,    0.1229,   -0.0907,   -0.2955,   -0.2902,   -0.2744,  999.0000,  999.0000,  999.0000,   -0.8176,   -1.4183,   -2.0543,   -3.0985,   -4.0355,   -4.1164,   -4.2959,   -5.0659,   -5.7387,   -5.9529,
 10-AUG-2000 02:45:19.00,    3.0799,    3.4000,  999.0000,  999.0000,    2.6978,    2.5524,  999.0000,  999.0000,    2.9671,    2.8959,  999.0000,  999.0000,    1.2282,    0.6739,    0.1224,   -0.1498,    0.0024,   -0.0017,   -0.2138,   -0.3154,   -0.2877,   -0.1057,    0.2351,    0.4961,    1.0247,    0.9711,    1.1465,    1.4939,    1.5177,    1.3286,    1.4429,    1.6863,    1.6969,    1.6730,    1.8881,    2.2362,    2.4508,    2.6160,    2.1174,    1.4112,    0.5811,   -0.2813,   -0.5846,   -0.7696,   -0.2467,    0.3942,    0.3018,    0.1178,   -0.2063,   -0.5425,   -0.3218,   -0.0732,   -0.7026,   -1.3288,   -0.8906,   -0.5094,   -1.2658,   -2.0430,   -3.0606,   -4.0151,   -4.4654,   -4.8661,   -4.9704,   -5.1215,   -5.4934,
 10-AUG-2000 02:50:23.00,  999.0000,    3.5158,    3.6313,    3.5711,    2.8353,    2.2831,  999.0000,  999.0000,  999.0000,  999.0000,    2.4586,    2.2069,    1.3818,    0.8273,  999.0000,  999.0000,    0.5750,    0.4592,  999.0000,  999.0000,   -0.0148,    0.0202,    0.2543,    0.4109,    0.9643,    1.0622,    1.3484,    1.8089,    2.0285,    2.1192,    2.3483,  999.0000,    3.6532,    3.1028,    3.3045,    3.4953,    3.6471,    3.7844,    3.5909,    3.2940,    2.3145,    1.1576,    0.6492,    0.2779,    0.4710,    0.7581,    0.6661,    0.5268,    0.2676,   -0.0019,    0.0907,    0.2013,   -0.6652,   -1.5269,   -1.1231,   -0.7565,   -1.1326,   -1.5446,   -2.3724,   -3.1732,   -3.7577,   -4.2868,   -4.4834,   -4.7424,   -5.2957,
 10-AUG-2000 02:55:27.00,  999.0000,    3.7608,  999.0000,  999.0000,    2.6790,    2.2443,    1.5729,    1.2171,  999.0000,  999.0000,    2.7115,    2.8103,    2.1110,    1.2285,    0.0274,   -0.5837,  999.0000,  999.0000,  999.0000,  999.0000,    0.8402,    0.9077,    0.7512,    0.8737,    1.0975,    1.1189,    1.3073,  999.0000,    1.6325,    1.7662,  999.0000,    3.1108,    3.3152,    3.3911,    3.6655,    4.0255,    3.9361,    3.6804,    3.0597,    2.3249,    1.3125,    0.2279,   -0.3985,   -0.9279,   -0.7251,   -0.4003,   -0.5555,   -0.7706,   -1.2340,   -1.7187,   -1.4955,   -1.2370,   -2.1841,   -3.1329,   -2.9890,   -2.8256,   -2.2729,   -1.8423,   -2.8264,   -3.7443,   -4.1340,   -4.5653,   -5.2457,   -5.9145,   -6.5290,
 10-AUG-2000 03:00:31.00,    3.4746,    3.9814,  999.0000,  999.0000,    2.7305,    2.2763,    1.7029,    1.3987,  999.0000,  999.0000,    2.6715,    2.8284,    2.4509,    2.1179,  999.0000,  999.0000,  999.0000,  999.0000,    0.8378,    0.7671,    0.9134,    1.0060,  999.0000,  999.0000,    0.9395,    1.2607,    1.4449,    1.5263,    1.6525,    1.8408,    2.5117,    3.4043,    3.6041,    3.4329,    3.7637,    4.3115,    4.3758,    4.2613,    3.7469,    3.1074,    2.1136,    1.0276,    0.5506,    0.2023,    0.5241,    0.9575,    0.8899,    0.7597,    0.3714,   -0.0391,    0.1805,    0.4316,   -0.4833,   -1.4111,   -1.9828,   -2.4955,   -1.8312,   -1.3135,   -2.4934,   -3.5782,   -3.9029,   -4.3184,   -5.2774,   -6.1701,   -6.7495,
 10-AUG-2000 03:05:35.00,    3.5322,    4.0456,    3.2380,    2.4831,    1.9301,    1.4677,    1.2951,    1.2836,  999.0000,  999.0000,    2.5563,    2.5737,    1.7778,    1.0509,    0.4438,    0.1962,    0.4947,    0.6143,    0.4958,    0.2830,   -0.0403,   -0.1169,  999.0000,  999.0000,    0.2845,    0.4931,    0.5023,    0.3594,    0.5993,  999.0000,    1.7551,    1.9426,    2.1011,    2.0471,    2.3839,    2.8895,    3.0141,    2.9980,    2.5412,    1.9468,    0.8412,   -0.3973,   -0.9393,   -1.3621,   -1.0634,   -0.6556,   -0.7616,   -0.9275,   -0.9110,   -0.8787,   -0.5250,   -0.1552,   -1.2474,   -2.3536,   -2.8760,   -3.3353,   -2.5373,   -1.8519,   -2.4706,   -3.1256,   -4.0713,   -5.0166,   -5.9595,   -6.8111,   -7.2318,
 10-AUG-2000 03:10:44.00,    3.4641,    3.7985,  999.0000,  999.0000,  999.0000,  999.0000,    1.3432,    1.1016,    1.5347,    1.8417,  999.0000,  999.0000,    1.8878,    1.5860,    0.7331,    0.3034,  999.0000,  999.0000,  999.0000,  999.0000,    1.3689,    1.4694,  999.0000,  999.0000,    1.9048,    1.9944,    1.8099,    1.5202,  999.0000,    0.6197,    1.0958,    2.0771,    2.2941,    2.1288,    2.3337,    2.6985,    3.0796,    3.4669,    3.2402,    2.8216,    1.5003,   -0.0559,  999.0000,  999.0000,  999.0000,   -0.3842,   -0.6149,   -0.8761,   -0.6536,   -0.3893,   -0.4666,   -0.5609,   -1.4419,   -2.3271,   -2.6914,   -3.0076,   -2.3626,   -1.8136,   -2.3767,   -3.0374,   -4.4784,   -5.8424,   -6.7450,   -7.5612,   -8.0443,
 10-AUG-2000 03:15:49.00,    3.6209,    3.8420,    3.4354,    3.0740,    2.8867,    2.5597,    1.7858,    1.1893,    1.0722,    1.2809,    2.2435,    2.7310,    2.2687,    1.9491,  999.0000,  999.0000,    1.7340,    1.6605,  999.0000,  999.0000,    1.4322,    1.5002,    1.7167,    1.9086,    2.0914,    2.2595,    2.3098,    2.2719,    2.1607,    2.0014,    2.2788,    2.8903,    3.0883,    3.1697,    3.3593,    3.5826,    3.6964,    3.7698,    3.0316,    2.0397,    1.0932,    0.1584,   -0.1762,   -0.3837,   -0.2952,   -0.1574,   -0.6143,   -1.1456,   -0.9085,   -0.6051,   -0.5534,   -0.5144,   -1.7873,   -3.0632,   -3.2255,   -3.3707,   -3.1728,   -3.0292,   -3.5141,   -4.0745,   -5.2371,   -6.3283,   -6.9916,   -7.6524,  999.0000,
 10-AUG-2000 03:20:53.00,    3.2346,    3.3731,  999.0000,  999.0000,  999.0000,  999.0000,  999.0000,  999.0000,  999.0000,  999.0000,  999.0000,  999.0000,  999.0000,  999.0000,  999.0000,  999.0000,  999.0000,  999.0000,  999.0000,  999.0000,  999.0000,  999.0000,  999.0000,  999.0000,    2.2873,    2.3682,    2.3089,    2.1443,    1.8555,    1.4820,    1.6079,    3.1286,  999.0000,    2.7926,    2.9416,    2.9916,    3.0418,    3.0920,    2.5106,    1.9124,    0.8156,   -0.4268,   -0.7740,   -0.9590,   -0.8363,   -0.6624,   -0.6844,   -0.7309,   -0.3386,    0.0915,   -0.2370,   -0.6034,   -1.6288,   -2.6447,   -2.4305,   -2.2626,   -3.0212,   -3.7608,   -4.2815,   -4.8829,   -6.1296,   -7.3194,   -8.1679,   -8.9103,   -9.1516,
 10-AUG-2000 03:25:57.00,    3.3516,    3.5711,    3.1132,    2.7030,    2.4763,    2.3286,    2.4339,    2.4496,    2.2229,    1.9813,  999.0000,  999.0000,    1.1540,    0.6311,   -0.3212,   -0.5447,    0.3389,    0.8835,  999.0000,  999.0000,  999.0000,  999.0000,  999.0000,  999.0000,    1.7836,    2.1851,    2.1416,    1.8486,    1.8298,  999.0000,    2.0925,    2.3148,    2.3389,    2.2942,    2.4813,    2.7774,    2.9369,    3.0693,    2.4711,  999.0000,  999.0000,   -0.0053,   -0.5960,   -0.9162,   -0.8073,   -0.5102,   -0.5443,   -0.6003,   -0.4230,   -0.2257,   -0.7638,   -1.3385,   -2.1678,   -2.9865,   -2.8975,   -2.8289,   -3.1648,   -3.5259,   -4.1786,   -4.8650,   -5.8202,   -6.7433,   -7.4743,   -8.1860,   -8.8063,
 10-AUG-2000 03:31:01.00,    3.3257,    3.1872,    2.3943,    1.7814,    1.8604,    1.8955,    1.7901,    1.8923,  999.0000,  999.0000,    3.8826,    4.1064,  999.0000,  999.0000,  999.0000,  999.0000,    0.8319,    0.5281,    0.6919,    1.0842,    1.7439,    2.3612,    2.9347,    3.3518,    3.6268,    2.8698,    3.0893,    3.3192,    3.4384,    2.9219,    3.3579,    3.5769,    3.4819,    3.3162,    3.4184,    3.5401,    3.3162,    3.8953,    3.4935,    2.5496,  999.0000,    1.3295,   -0.5532,   -0.5914,   -0.4422,   -0.1926,   -0.2898,   -0.3543,   -0.0585,    0.2683,   -0.6379,   -1.6056,   -2.2989,   -2.9749,   -2.8499,   -2.7753,   -3.7044,   -4.5981,   -5.0809,   -5.5981,   -6.3892,   -7.1979,   -8.1115,   -8.9825,   -9.6529,
 10-AUG-2000 03:36:05.00,    3.5500,    3.6244,    3.3728,    3.0541,    2.4777,    2.0257,    1.9716,    2.0099,    2.2981,    2.3960,  999.0000,  999.0000,  999.0000,  999.0000,    0.6844,    0.6981,    1.2525,    1.4545,    1.1868,    1.2266,  999.0000,  999.0000,    2.4269,    2.7132,    2.1272,    2.3249,    2.6020,    3.0601,    3.3402,    3.4131,    3.8563,    3.9437,    3.8494,    3.5799,    3.8443,    4.3393,    4.3169,    4.1032,    3.9845,    3.8955,    2.5430,    0.8619,    0.2153,   -0.2124,   -0.6212,   -1.0270,   -0.9895,   -1.0274,   -0.9698,   -0.9502,   -1.4121,   -1.9009,   -2.5827,   -3.2686,   -3.3772,   -3.4904,   -3.9613,   -4.4359,   -4.9517,   -5.4795,   -6.1040,   -6.7453,   -7.4869,   -8.3338,   -9.6778,
 10-AUG-2000 03:41:10.00,    3.4702,    3.2106,    3.0789,    2.9012,  999.0000,  999.0000,    1.8369,    1.6443,    1.8900,    2.1367,    2.3854,    2.4272,  999.0000,  999.0000,  999.0000,  999.0000,    0.5693,    0.2492,   -0.0025,   -0.1510,   -0.1788,   -0.1319,  999.0000,  999.0000,    1.1318,    1.3126,    1.5738,  999.0000,  999.0000,    2.5133,    2.8558,    3.2195,    3.1727,    2.9206,    3.2057,    3.7229,    3.5175,    3.0451,    2.7709,    2.5585,    1.4271,    0.0566,   -0.5316,   -0.9543,   -1.1515,   -1.3111,  999.0000,  999.0000,  999.0000,   -1.4755,   -1.5535,   -1.6334,  999.0000,  999.0000,  999.0000,   -2.9717,   -4.2931,   -5.5351,   -5.8570,   -6.2046,   -6.7565,   -7.3499,   -8.2367,   -9.1213,  -10.2915,
 10-AUG-2000 03:46:14.00,    3.1909,    3.4711,    3.4302,    3.3312,    3.0094,    2.7457,  999.0000,  999.0000,    2.5131,    2.2983,  999.0000,  999.0000,  999.0000,  999.0000,   -0.3642,   -0.5926,  999.0000,  999.0000,  999.0000,  999.0000,    0.5753,    0.9532,    1.4799,    1.8053,    1.3349,    1.6315,    1.8649,    2.2509,    2.5855,    2.8862,    2.9730,    2.9368,    2.9843,    3.0737,    3.1607,    3.2773,    3.1049,    2.7726,    2.2048,    1.5494,    0.7732,   -0.0344,   -0.6450,   -1.2141,   -0.9636,   -0.5764,   -0.7270,   -0.9449,   -1.1748,   -1.4058,   -1.3407,   -1.2607,   -1.8114,   -2.3661,   -2.4640,   -2.6120,   -3.8346,   -5.1134,   -5.2370,   -5.4474,   -6.3500,   -7.2599,  999.0000,  999.0000,  999.0000,
 10-AUG-2000 03:51:19.00,    2.5128,    2.8157,  999.0000,  999.0000,  999.0000,  999.0000,    0.9115,    0.8574,  999.0000,  999.0000,    3.3458,    3.4630,  999.0000,  999.0000,   -0.4562,   -1.0386,  999.0000,  999.0000,    0.5128,    0.8626,  999.0000,  999.0000,  999.0000,  999.0000,  999.0000,    3.0489,    3.0373,    3.0257,    2.9729,    2.9732,    3.1460,    3.4645,    3.5050,    3.2779,    3.1977,  999.0000,  999.0000,    2.7414,    2.2490,    1.6679,    0.7838,   -0.1792,   -0.6921,   -1.0108,   -0.8751,   -0.4804,   -0.5240,   -0.5970,   -0.6652,   -0.7329,   -0.8006,   -0.8684,   -1.2068,   -1.5595,  999.0000,  999.0000,  999.0000,   -5.3521,   -5.6847,   -6.0693,   -6.8693,   -7.6858,   -8.6017,   -9.4333,   -9.8675,
 10-AUG-2000 03:56:23.00,    2.7940,    2.8591,    3.0727,    3.0405,    2.0632,    1.3128,    1.2880,    1.3539,    1.6655,    2.0716,    2.6963,    2.7499,  999.0000,  999.0000,   -0.5132,   -0.9088,   -0.2534,    0.2426,  999.0000,  999.0000,    1.0940,    1.6213,    2.3996,    2.8229,    2.9238,    2.0984,    2.3611,    2.6197,    2.6921,    3.5349,  999.0000,  999.0000,    3.8092,    2.4065,    2.7417,    3.2463,    3.1703,    2.8797,    2.5480,    2.2036,    1.2351,    0.1043,  999.0000,  999.0000,  999.0000,   -0.1543,   -0.3300,   -0.5318,   -0.4423,   -0.3276,   -0.5037,   -0.6943,   -0.9897,   -1.2938,   -2.0368,   -2.7862,   -3.6633,   -4.5058,   -4.9490,   -5.4639,   -6.5519,   -7.6289,   -8.6394,   -9.5588,  -10.0477,
 10-AUG-2000 04:01:27.00,    3.8042,    3.8333,    3.6402,    3.3580,    2.7333,    2.1665,    1.7847,    1.6244,  999.0000,  999.0000,    2.9410,    3.0948,  999.0000,  999.0000,  999.0000,  999.0000,    1.0150,    0.8627,  999.0000,  999.0000,  999.0000,  999.0000,    1.8575,    1.9800,    2.3983,    2.6135,    2.8243,    3.0319,    3.1031,    3.0844,    3.0229,    2.9367,    2.8844,    2.8278,    2.9204,    3.0865,    2.8138,    2.5320,    2.3810,    2.2906,    1.1786,   -0.1990,   -0.8488,   -1.3447,   -1.3059,   -1.1780,   -1.1120,   -1.0537,   -1.2578,   -1.4845,   -1.8197,   -2.1604,   -2.6775,   -3.1919,   -3.3742,   -3.5884,   -4.4411,   -5.2814,   -5.9790,   -6.6849,   -7.4570,   -8.2636,   -9.2777,  -10.2386,  -10.9485,
 10-AUG-2000 04:06:31.00,    3.4672,    3.5565,    3.3283,    2.9995,    2.2841,    1.6830,    1.4475,    1.3988,    1.8552,    2.1400,  999.0000,  999.0000,  999.0000,  999.0000,  999.0000,  999.0000,  999.0000,  999.0000,    1.1289,    1.1693,  999.0000,  999.0000,    1.8276,    1.8646,    2.4366,    2.4610,    2.5831,    2.7787,    2.8666,    2.8837,    2.9094,    2.9402,    3.0209,  999.0000,  999.0000,  999.0000,    3.1720,    3.6541,    3.6103,    3.5314,    2.2322,    0.6158,    0.0019,   -0.3999,   -0.1622,    0.1821,   -0.3358,   -0.9614,   -1.2149,   -1.4363,   -1.4023,   -1.3555,   -2.2807,   -3.2091,   -3.3686,   -3.5247,   -3.6113,   -3.7614,   -4.6462,   -5.4952,   -6.0580,   -6.6973,   -7.7948,   -8.7838,   -9.2596,
 10-AUG-2000 04:11:36.00,  999.0000,  999.0000,  999.0000,  999.0000,  999.0000,  999.0000,    2.1046,    2.1898,    2.5687,    2.9490,    3.3322,    3.5467,  999.0000,  999.0000,  999.0000,  999.0000,  999.0000,  999.0000,  999.0000,  999.0000,    2.4408,    2.4163,  999.0000,  999.0000,    3.1315,    3.2875,    3.2850,    3.1635,    3.0589,    2.9656,    3.0133,    3.1422,    3.1231,    3.0300,    3.2796,    3.6774,    3.5764,    3.2911,    3.0591,    2.8438,    1.7837,    0.5038,   -0.0793,   -0.5149,   -0.6969,   -0.8367,   -1.2814,   -1.7643,   -2.1110,   -2.4459,   -2.6179,   -2.7818,   -3.6825,   -4.5774,   -4.3847,   -4.2291,   -4.8157,   -5.3982,   -5.9335,   -6.4820,   -7.1364,   -7.8200,   -8.6784,   -9.4085,   -9.5321,
 10-AUG-2000 04:16:40.00,    3.2077,    2.9175,    3.0536,    3.0417,    2.4609,    1.9230,    1.5221,    1.4206,    2.1287,    2.6867,    2.8973,    3.0136,  999.0000,  999.0000,  999.0000,  999.0000,  999.0000,  999.0000,  999.0000,  999.0000,  999.0000,  999.0000,  999.0000,  999.0000,    1.4954,    1.8588,    2.1114,    2.2809,    2.2515,    2.0912,    2.0085,    1.9705,    2.0621,    2.2185,    2.5640,    2.9912,    3.1706,    3.2583,    3.0042,    2.6433,    1.7341,    0.6824,    0.2714,   -0.0040,   -0.1819,   -0.3435,   -0.7776,   -1.2458,   -1.5086,   -1.7538,   -1.8660,   -2.2736,   -2.6467,   -3.2497,   -3.3576,   -3.4856,   -4.0121,   -4.5509,   -5.2320,   -5.9682,   -7.1437,   -8.3202,   -9.5030,  -10.5111,  -10.6944,
 10-AUG-2000 04:21:44.00,    3.5958,    3.4779,    2.9484,    2.3741,    1.6280,    1.0279,  999.0000,  999.0000,  999.0000,  999.0000,  999.0000,  999.0000,    0.0960,    0.0639,    0.2072,    0.5147,  999.0000,  999.0000,    2.1846,    2.4047,    2.2306,    2.1934,    2.2973,    2.2647,    2.2096,    2.1704,    2.2141,    2.3199,    2.2247,    1.9972,    1.8619,    1.7795,    1.8522,    2.0024,    2.3700,    2.8316,    2.6983,    2.3450,    2.0226,    1.7099,    0.7508,   -0.3765,   -0.8457,   -1.1757,   -1.3500,   -1.5091,   -2.0686,   -2.6932,   -2.9580,   -3.1930,  999.0000,  999.0000,  999.0000,   -4.8567,   -4.6692,   -4.5006,   -4.7105,   -4.9818,   -5.9637,   -6.9538,   -8.0092,   -8.9959,   -9.5705,  -10.1104,  -10.4863,
 10-AUG-2000 04:26:49.00,    3.0934,    3.0449,    2.9542,    2.6968,    1.7986,    1.0805,    0.9386,    0.8664,  999.0000,  999.0000,  999.0000,  999.0000,  999.0000,  999.0000,  999.0000,  999.0000,    1.9118,    1.9295,  999.0000,  999.0000,    1.5894,    1.6755,  999.0000,  999.0000,    1.3959,    1.7850,    2.1050,    2.3730,    2.5323,    2.6200,    2.4773,    2.2020,    2.2533,    2.4681,    2.9043,    3.4705,    3.3667,    3.0120,    2.7165,    2.4311,    1.3238,    0.0523,   -0.4663,   -0.7005,  999.0000,  999.0000,   -1.2371,   -1.8706,   -1.8892,   -1.8882,   -2.4966,   -3.1354,   -3.5613,   -3.9732,   -3.7317,   -3.5235,   -3.9781,   -4.4931,   -5.7070,   -6.8701,   -7.6264,   -8.4034,   -9.3040,  -10.1160,  -10.5095,
 10-AUG-2000 04:31:53.00,  999.0000,  999.0000,  999.0000,    3.0028,  999.0000,  999.0000,  999.0000,  999.0000,  999.0000,  999.0000,    3.4790,    3.1546,    2.0457,    1.3670,  999.0000,  999.0000,  999.0000,  999.0000,  999.0000,  999.0000,    1.8509,    1.9410,  999.0000,  999.0000,    2.5815,    2.6215,    2.5734,    2.4592,    2.5532,    2.8338,    2.8835,    2.7893,    2.8255,    2.9042,    2.9660,  999.0000,  999.0000,    2.8463,    2.5394,    2.1708,  999.0000,  999.0000,  999.0000,   -0.3512,   -0.8054,   -1.2391,   -1.2471,   -1.2019,   -1.5740,   -1.9822,   -2.4585,   -2.9383,   -3.0949,   -3.2468,   -3.4343,   -3.6459,   -4.3385,   -5.0613,   -6.1334,   -7.2444,   -8.6668,   -9.9638,  -10.5094,  -10.9405,  -10.8305,
 10-AUG-2000 04:36:57.00,    2.9271,    2.7767,  999.0000,  999.0000,    1.4579,    1.1038,    1.0233,    1.1129,  999.0000,  999.0000,    2.7609,    2.9848,  999.0000,  999.0000,    1.7055,    1.7138,    2.3823,    2.7424,  999.0000,  999.0000,  999.0000,  999.0000,  999.0000,  999.0000,    2.3579,    2.1025,    1.9691,    1.9274,    1.8478,    2.5848,  999.0000,    1.6019,    1.6332,    1.7117,    2.1921,    2.8461,    2.7707,    2.4257,    1.9694,    1.4782,    0.5098,   -0.5827,   -0.9375,   -1.1363,   -1.5047,   -1.9014,   -1.9720,   -2.0019,   -2.2109,   -2.4355,   -2.8602,   -3.2949,   -3.7158,   -4.1292,   -4.0983,   -4.0946,   -4.6333,   -5.2402,   -6.6149,   -7.9351,   -8.6472,   -9.3674,  -10.1355,  -10.7747,  -10.8056,
 10-AUG-2000 04:42:01.00,  999.0000,  999.0000,  999.0000,    3.4740,    2.3929,    1.4477,    0.9371,    0.7523,  999.0000,  999.0000,    2.8414,    3.2763,  999.0000,  999.0000,  999.0000,  999.0000,  999.0000,  999.0000,  999.0000,  999.0000,    2.4863,    2.4172,  999.0000,  999.0000,    2.1092,    1.7523,    1.6999,    1.9240,    1.7895,    1.4150,    1.1755,    0.9566,    0.9295,    1.0599,    1.5856,    2.3001,    2.3178,    2.0779,    1.4530,    0.7078,   -0.2977,   -1.3709,   -1.3917,   -1.1898,   -1.5667,   -2.0402,   -2.0600,   -2.0232,   -2.4715,   -2.9616,   -3.2043,   -3.4346,   -3.8888,   -4.3485,   -3.9541,   -3.5144,   -4.3822,   -5.2465,  999.0000,  999.0000,  -10.0430,  999.0000,  999.0000,  999.0000,  999.0000,
 10-AUG-2000 04:47:05.00,    3.1373,    2.9544,    3.4006,    3.5539,    2.5810,    1.8454,  999.0000,  999.0000,  999.0000,  999.0000,  999.0000,  999.0000,  999.0000,  999.0000,  999.0000,  999.0000,    2.0975,    2.0868,    2.0312,    1.9985,    1.9926,    1.9823,  999.0000,  999.0000,  999.0000,  999.0000,  999.0000,  999.0000,  999.0000,  999.0000,  999.0000,  999.0000,    1.8187,    1.7363,    2.2255,    2.7185,    2.4197,    1.8281,    1.0693,    0.2582,   -0.6716,   -1.6323,   -1.8166,   -1.8368,   -1.9420,   -2.0615,   -2.1370,   -2.2069,   -3.0305,   -3.9190,   -3.7113,   -3.4488,  999.0000,  999.0000,  999.0000,   -3.5475,   -4.3758,   -5.1746,   -5.6322,   -6.2332,   -7.9806,   -9.5234,   -9.8403,  -10.2353,  -10.9995,
 10-AUG-2000 04:52:09.00,    2.7823,    2.6264,  999.0000,  999.0000,    1.5445,    1.2465,    1.1484,    1.1274,  999.0000,  999.0000,  999.0000,  999.0000,  999.0000,  999.0000,  999.0000,  999.0000,    2.8100,    2.8298,  999.0000,  999.0000,  999.0000,  999.0000,    1.8155,    1.8348,    3.0271,    2.8993,    2.7741,  999.0000,    2.0133,    1.4202,    0.4869,    1.2074,    1.2710,    1.5664,    1.9053,    2.2630,    2.1808,    1.9360,    1.1860,    0.2781,   -0.8786,   -2.1001,   -2.0048,   -1.6309,   -1.7308,   -1.9096,   -1.9736,   -2.0232,   -2.8634,   -3.7718,   -3.5102,   -3.1901,   -3.9257,   -4.5677,   -4.4528,   -4.3263,   -4.8847,   -5.4928,   -6.6764,   -7.8416,   -8.8591,   -9.8214,  -10.4523,  -11.0997,  -11.8247,
 10-AUG-2000 04:57:14.00,  999.0000,  999.0000,  999.0000,  999.0000,    1.3552,    1.4283,    1.5015,    1.4958,  999.0000,  999.0000,  999.0000,  999.0000,    0.4010,    0.6085,  999.0000,  999.0000,    3.4547,    3.9558,  999.0000,  999.0000,    3.6705,    3.5477,  999.0000,  999.0000,    3.0935,    2.8243,    3.1895,    3.5546,    3.5748,    3.3679,    2.8306,    2.1031,    1.9977,    2.1108,    2.3194,    2.5773,    2.5335,    2.4057,    1.2753,   -0.1683,   -1.1783,   -2.0755,   -2.0338,   -1.7936,   -1.9914,   -2.2623,   -2.3570,   -2.4298,   -2.6702,   -2.9251,   -2.7556,   -2.5649,  999.0000,  999.0000,  999.0000,   -3.3872,   -3.7671,   -4.2406,   -5.7982,   -7.2732,   -8.0870,   -8.9210,   -9.8762,  -10.8567,  -11.9569,
 10-AUG-2000 05:02:18.00,    2.9149,    2.8507,    2.8844,    2.8244,    2.4045,    2.0192,    1.7441,    1.7653,    2.5875,    3.1394,  999.0000,  999.0000,  999.0000,  999.0000,  999.0000,  999.0000,    2.6248,    2.5872,    2.5974,    2.5747,  999.0000,  999.0000,  999.0000,  999.0000,  999.0000,    3.2979,    3.4969,    3.6746,    3.4603,    2.9880,    2.4000,    1.7454,    1.7054,    2.2983,  999.0000,    2.6444,    2.4029,    1.9434,    0.5197,   -1.4564,   -2.1112,   -2.4525,   -2.9229,   -3.3878,   -3.5980,   -3.7658,   -3.6731,   -3.5480,   -3.5794,   -3.6244,   -3.3145,   -2.9870,   -3.2233,   -3.4616,   -3.2656,   -3.1267,   -4.1258,   -5.1209,   -6.0690,   -7.0492,   -8.2865,   -9.4926,  -10.5117,  -11.5598,  -12.7444,
 10-AUG-2000 05:07:22.00,    2.8576,    2.8566,    2.8581,    2.6820,    1.8232,    1.2227,    1.4480,    1.8253,    2.6138,    3.1412,  999.0000,  999.0000,  999.0000,  999.0000,    2.7560,    2.7705,    2.9241,    3.0796,    3.2376,    3.3558,    3.4275,    3.5083,  999.0000,  999.0000,    3.2792,    3.5267,    3.5415,    3.6145,    3.1238,    2.1742,    1.4160,    0.6320,    0.5148,    1.0094,    1.5630,    1.8741,    1.9579,    1.8379,    1.0960,  999.0000,  999.0000,   -1.6873,   -2.0482,   -2.2904,   -2.8270,   -3.4126,   -3.3636,   -3.2354,   -3.4033,   -3.5968,   -3.3697,   -3.1216,   -3.2888,   -3.4605,   -3.4965,   -3.5624,   -4.2236,   -4.9230,   -6.0634,   -7.2212,   -8.5180,   -9.7692,  -10.7475,  -11.6914,  -12.4737,
 10-AUG-2000 05:12:26.00,    3.0605,    3.2168,    3.2197,    3.0001,    1.9248,    1.1196,    1.1781,    1.2521,  999.0000,  999.0000,  999.0000,  999.0000,  999.0000,  999.0000,  999.0000,  999.0000,  999.0000,  999.0000,  999.0000,  999.0000,  999.0000,  999.0000,  999.0000,  999.0000,    2.0741,    2.5150,    2.5186,  999.0000,  999.0000,    1.3155,    0.6998,   -0.2679,   -0.5034,  999.0000,  999.0000,   -0.0672,   -0.0836,   -0.2882,   -0.5450,   -0.7258,   -0.9891,   -1.2352,   -1.7999,   -2.4321,   -3.0262,   -3.6139,   -3.5154,   -3.3312,   -2.8402,   -2.3228,   -2.1807,   -2.0574,   -2.8033,   -3.5493,   -3.4406,   -3.3511,   -3.5074,   -3.8115,   -4.6980,   -5.6533,   -7.1579,   -8.6526,  -10.0880,  -11.3381,  -11.7135,
 10-AUG-2000 05:17:30.00,  999.0000,  999.0000,  999.0000,  999.0000,    1.0736,    0.9427,  999.0000,  999.0000,    1.9368,    2.1925,    2.2729,    2.3041,  999.0000,  999.0000,  999.0000,  999.0000,    1.9676,    1.9836,  999.0000,  999.0000,  999.0000,  999.0000,    2.6175,    2.9577,    2.7196,    2.8520,    3.0197,    3.2137,    2.9240,    2.3158,    1.8869,    0.1746,    0.5755,    1.2933,    1.3450,    1.4604,    1.2387,  999.0000,  999.0000,   -0.0624,   -0.3243,   -0.7074,   -1.5705,   -2.6334,   -3.0945,   -3.4783,   -3.4388,   -3.3464,   -3.8037,   -4.3083,   -4.1794,   -4.0188,   -4.2597,   -4.4987,   -4.2261,   -4.0012,  999.0000,  999.0000,  999.0000,  999.0000,  999.0000,  999.0000,  999.0000,  999.0000,  999.0000,
 10-AUG-2000 05:22:34.00,  999.0000,    3.9816,    3.5661,    3.1250,    2.5852,    2.1649,    2.1268,    2.2559,    2.8366,    2.9745,  999.0000,  999.0000,    0.3127,   -0.0333,  999.0000,  999.0000,    1.7507,    2.0973,    2.1134,    2.1294,  999.0000,  999.0000,  999.0000,  999.0000,    3.2507,    3.1600,    3.1404,    3.1743,    3.0212,    2.7451,    1.8706,    0.6520,    0.4091,    0.6541,    0.6201,    0.4656,    0.5129,    0.6349,    0.0114,   -0.8451,  999.0000,  999.0000,  999.0000,   -2.7203,   -3.2695,   -3.8350,   -3.8446,   -3.7847,   -4.0137,   -4.2676,   -4.0845,   -3.8796,   -3.6921,   -3.5083,   -3.5335,   -3.5928,   -4.3313,   -5.0936,   -6.1319,   -7.1891,   -8.3976,   -9.5465,  -10.3392,  -11.1580,  -12.1003,
 10-AUG-2000 05:27:38.00,    3.6311,    3.6454,    3.2504,    2.8307,    2.3157,    1.9353,    1.9850,    2.2133,    2.9242,    3.3642,    3.1770,    2.7394,    1.8017,    1.3425,  999.0000,  999.0000,  999.0000,  999.0000,    3.2053,    3.4220,  999.0000,  999.0000,  999.0000,  999.0000,    3.8866,    3.6447,    3.5034,    3.1584,    2.9634,    3.2402,    2.4475,    0.8850,    0.8085,    1.2380,    1.3715,    1.3772,    1.4390,    1.5215,    0.7190,   -0.3602,   -0.8657,   -1.2219,   -1.6630,   -2.1219,   -2.6492,   -3.1879,   -3.3874,   -3.5445,   -4.1099,   -4.7104,   -4.2058,   -3.6459,   -3.4033,   -3.1690,   -3.1401,   -3.1502,   -3.9397,   -4.7374,   -5.6292,   -6.5840,   -8.0413,   -9.4277,  -10.3886,  -11.3158,  -12.0834,
 10-AUG-2000 05:32:42.00,    3.7270,    3.7287,    3.4478,    3.2010,  999.0000,  999.0000,  999.0000,  999.0000,  999.0000,  999.0000,  999.0000,  999.0000,  999.0000,  999.0000,  999.0000,  999.0000,    1.6959,    1.7257,    1.9495,    2.0521,  999.0000,  999.0000,  999.0000,  999.0000,  999.0000,  999.0000,  999.0000,    1.8683,    1.3520,    1.5425,  999.0000,   -0.4618,   -0.5196,   -0.2671,   -0.1543,   -0.1019,    0.0053,    0.1327,   -0.2541,   -0.8017,   -1.1724,   -1.4971,   -2.1285,   -2.8249,   -3.2017,   -3.5253,   -4.0843,   -4.4401,   -4.9791,   -5.4991,   -4.8591,   -4.1592,   -3.9046,   -3.6647,   -3.6355,   -3.6488,   -4.4800,   -5.3244,   -6.3208,   -7.3338,   -8.4791,   -9.6307,  -10.8199,  -11.8966,  -12.4421,
 10-AUG-2000 05:37:46.00,    3.3020,    3.4789,    3.2683,    2.9815,    2.4022,    1.9462,    1.8848,    2.0105,    2.6425,    2.9814,    2.6420,    2.2392,    1.7096,    1.4758,  999.0000,  999.0000,    2.3162,    2.4775,    2.4805,    2.5373,    2.6572,    2.6785,    2.5981,    2.7836,  999.0000,  999.0000,    4.0652,    3.5216,    3.4780,    3.4259,    2.7243,    1.6491,    1.4702,    1.7397,    1.7507,    1.6499,    1.6618,    1.7152,    1.0322,    0.1189,   -0.3553,   -0.7153,   -1.1548,   -1.6110,   -2.0688,   -2.5268,  999.0000,  999.0000,  999.0000,   -5.4330,   -5.0053,   -4.5164,  999.0000,  999.0000,  999.0000,   -3.9383,   -4.7436,   -5.5765,   -6.7283,   -7.9308,   -9.5379,  -11.0286,  -11.8224,  -12.5140,  -12.7229,
 10-AUG-2000 05:42:51.00,  999.0000,  999.0000,  999.0000,    1.7373,    1.3657,    1.0586,    0.9577,    0.9618,  999.0000,  999.0000,    1.8264,    1.8248,    1.2440,    0.9650,  999.0000,  999.0000,  999.0000,  999.0000,  999.0000,  999.0000,    2.6828,    2.9320,    3.1851,    3.2342,    3.0378,    2.8217,    2.8047,    2.9371,    2.9316,    2.8353,    2.0635,    0.9031,    0.8288,    1.2978,    1.2445,    0.9656,    0.8427,    0.7775,    0.1417,   -0.6723,   -1.1065,   -1.4419,   -1.9856,   -2.5733,   -2.9725,   -3.3403,   -3.6224,   -3.8938,   -4.7188,   -5.5914,   -5.1599,   -4.6277,   -4.5930,   -4.4529,   -4.3070,   -4.1938,   -4.7322,   -5.3337,   -6.6656,   -8.0020,   -9.3748,  -10.6044,  -10.9764,  -11.2907,  -11.3329,
 10-AUG-2000 05:47:55.00,    3.4979,    3.5621,    3.0033,    2.5018,    2.2209,    1.9770,    1.8512,    1.9497,    2.6548,    3.1149,    3.0082,    2.9338,  999.0000,  999.0000,  999.0000,  999.0000,  999.0000,  999.0000,    2.8672,    2.9025,    2.9903,    3.0306,  999.0000,  999.0000,    2.7684,    2.6662,    2.9348,    3.4816,    3.5893,    3.4079,    2.8041,    1.9574,    1.7644,    1.8984,    1.9416,    1.9456,    1.7259,    1.5715,    1.0586,    0.4337,   -0.1480,   -0.7455,   -1.4822,   -2.2484,   -2.4571,   -2.4935,   -3.2388,   -3.9481,   -4.5272,   -5.0894,  999.0000,  999.0000,   -8.6040,   -2.8718,   -3.5425,   -4.2176,   -4.9827,   -5.7969,   -7.1803,   -8.5766,  -10.0772,  -11.4301,  -11.8988,  -12.2464,  -12.0223,
 10-AUG-2000 05:52:59.00,    3.4427,    3.7321,  999.0000,  999.0000,    1.2173,    0.5836,    0.6041,    0.8481,    1.6966,    2.2247,    2.0111,    1.8902,  999.0000,  999.0000,  999.0000,  999.0000,  999.0000,  999.0000,  999.0000,  999.0000,    2.4695,    2.6376,    2.9126,    2.9136,    2.7446,    2.8730,    3.0175,    3.1742,    2.9124,    2.3752,    1.8163,    1.2449,    1.1640,    1.3285,    1.2822,    1.1448,    0.9214,  999.0000,   -0.2010,   -0.0359,   -0.2840,   -0.5020,   -1.1709,   -1.9352,  999.0000,  999.0000,   -3.5507,   -3.3554,   -4.1422,   -4.9661,   -4.0391,   -3.0247,   -2.8659,   -2.7284,   -3.0579,   -3.4155,   -4.3319,   -5.2842,   -6.6504,   -8.0675,   -9.8910,  -11.5448,  -12.1824,  -12.6538,  -12.3401,
 10-AUG-2000 05:58:03.00,  999.0000,  999.0000,  999.0000,    2.0846,    1.5682,    1.1953,    1.2817,    1.3853,  999.0000,  999.0000,  999.0000,  999.0000,  999.0000,  999.0000,  999.0000,  999.0000,    2.7388,    2.8349,  999.0000,  999.0000,  999.0000,  999.0000,    2.9544,    2.8801,    2.6890,    2.2729,    2.1211,    2.1676,    2.0591,    1.8485,    1.5664,    1.2433,    1.5440,    2.1567,    2.0616,    1.6608,    1.5198,    1.4749,    0.8723,    0.0953,   -0.4855,   -1.0153,   -1.5776,   -2.1469,   -2.4743,   -2.7614,   -3.3074,   -3.8857,   -4.6323,   -5.2665,   -4.6831,   -3.8559,   -3.9927,   -3.9567,   -3.9592,   -3.9220,   -4.4702,   -5.0669,   -6.2251,   -7.4791,   -9.4981,  -11.2528,  -11.4244,  -11.6315,  -12.0059,
 10-AUG-2000 06:03:07.00,  999.0000,  999.0000,  999.0000,  999.0000,    0.8109,    0.8583,    0.7383,    0.7834,    1.2750,    1.5622,  999.0000,  999.0000,    1.0048,    1.0402,  999.0000,  999.0000,    2.2998,    2.5352,    2.5250,    2.5673,  999.0000,  999.0000,    2.8789,    2.9061,    2.5055,    2.4298,    2.5771,    2.8919,    2.9485,    2.8352,    2.4075,    1.8913,    1.8849,    2.0786,    1.9876,    1.7323,    1.8179,    2.0296,    1.5478,    0.8493,    0.0664,   -0.7384,   -1.1973,   -1.5830,   -1.8215,   -2.0354,   -2.8491,   -3.7377,   -5.3846,   -4.4022,   -3.3109,   -3.3450,   -3.8759,   -4.4597,   -5.0339,   -3.9501,   -4.6267,   -5.3170,   -6.1656,   -7.1693,   -9.4125,  -11.3374,  -11.3559,  -11.4011,  -11.5727,
 10-AUG-2000 06:08:14.00,    2.9654,    3.0341,  999.0000,  999.0000,    1.2895,    0.8399,    0.8121,    1.0687,    2.0942,    2.6664,    2.1895,    1.7389,    1.3410,    1.1131,  999.0000,  999.0000,  999.0000,  999.0000,  999.0000,  999.0000,  999.0000,  999.0000,  999.0000,  999.0000,    1.9454,    2.4957,    2.8604,    3.1941,    2.9163,    2.2358,    1.8326,  999.0000,  999.0000,    1.1969,    0.9934,    0.7825,    0.7756,    0.8441,    0.6452,    0.3626,   -0.4727,   -1.4516,   -2.0262,   -2.5153,   -2.7892,   -3.0272,   -3.7270,   -4.4845,   -5.5586,   -6.6599,   -5.6181,   -4.4692,   -4.3601,   -4.2684,   -4.2216,   -4.2018,   -4.7204,   -5.2635,   -6.0903,   -7.0528,   -9.0994,  -10.8358,  -10.7571,  -10.6945,  -10.9667,
 10-AUG-2000 06:13:18.00,  999.0000,  999.0000,  999.0000,  999.0000,  999.0000,  999.0000,  999.0000,  999.0000,  999.0000,  999.0000,  999.0000,  999.0000,    2.0106,    1.9398,    1.7086,    1.5263,    1.4180,    1.4315,    1.6070,    1.9261,  999.0000,  999.0000,    3.3875,    3.4737,    3.1958,    3.7947,    4.0901,    4.3562,    4.0239,    3.2976,    2.6845,    2.1365,    1.8250,    1.6319,    1.4591,    1.2952,    1.3052,    1.3796,    1.0401,    0.5713,   -0.1604,   -0.9793,   -1.5281,   -1.9890,   -2.1402,   -2.2285,   -2.8037,   -3.4396,   -4.1936,   -4.9577,   -4.5508,   -4.0854,   -3.6293,   -3.1775,   -2.9725,   -2.8211,   -3.7377,   -4.6818,   -5.9442,   -7.2508,   -8.9103,  -10.3670,  999.0000,  999.0000,  999.0000,
 10-AUG-2000 06:18:22.00,    3.1718,    3.1483,    2.2807,    1.5385,    1.2781,    1.1268,    1.3243,    1.7761,    2.9158,    3.6034,    3.2450,    2.7963,    2.1672,    1.6509,    1.3305,    1.2564,    1.5563,    1.7025,  999.0000,  999.0000,  999.0000,  999.0000,  999.0000,  999.0000,    3.4665,    3.9514,    4.1809,    4.2188,    3.6848,    2.7742,    2.1414,    1.6684,    1.4571,    1.3766,    1.1124,    0.7689,    0.7707,    0.9002,    0.8061,    0.6421,  999.0000,  999.0000,  999.0000,   -1.7686,   -1.9975,   -2.1727,   -2.8116,   -3.5084,   -4.2613,   -5.0192,   -4.6565,   -4.2378,   -4.2148,   -4.2008,   -4.3525,   -4.5123,   -4.8326,   -5.2511,   -6.8072,   -8.3214,   -9.5001,  -10.5717,  -11.0016,  -11.3643,  -11.4103,
 10-AUG-2000 06:23:27.00,    2.7503,    2.8351,    2.2353,    1.7119,    1.4822,    1.2745,    1.1370,    1.0677,  999.0000,  999.0000,  999.0000,  999.0000,  999.0000,  999.0000,  999.0000,  999.0000,    2.1052,    2.1281,  999.0000,  999.0000,    1.8275,    1.7348,  999.0000,  999.0000,    3.8541,    4.5082,    4.5803,    4.4462,    3.8802,    3.0299,    2.3601,    1.7941,    1.4031,    1.0996,    0.8609,    0.6502,    0.7466,    0.9566,    0.9388,    0.8498,   -0.0486,   -1.1574,   -1.6125,   -1.9294,   -2.1509,   -2.3565,   -3.1545,   -4.0266,   -4.3792,   -4.6872,   -4.0518,   -3.3694,   -3.3698,   -3.3874,   -3.7868,   -4.1891,   -4.6509,   -5.2290,   -7.1550,   -8.9941,  -10.1923,  -11.4323,  -11.7257,  -12.0223,  -12.3344,
 10-AUG-2000 06:28:31.00,  999.0000,    3.0511,    2.3694,    1.8086,  999.0000,  999.0000,    1.5212,    1.4308,  999.0000,  999.0000,  999.0000,  999.0000,  999.0000,  999.0000,    0.9008,    0.9907,  999.0000,  999.0000,  999.0000,  999.0000,    2.6974,    3.1840,  999.0000,  999.0000,    5.0932,    5.2150,    4.8271,    4.4393,    3.8299,    3.0747,    2.4178,    1.8174,    1.3611,    0.9768,    0.6900,    0.4453,    0.4901,    0.6418,    0.6469,    0.6062,   -0.1250,   -1.0358,   -1.7132,   -2.3412,   -2.3805,   -2.3218,   -2.9443,   -3.6520,   -3.9608,   -4.2353,   -3.8627,   -3.4577,   -3.5562,   -3.6718,   -4.3525,   -5.0435,   -5.9428,   -6.8789,   -7.8536,   -9.1524,  999.0000,  999.0000,  999.0000,  999.0000,  999.0000,
 10-AUG-2000 06:33:36.00,    3.0273,    3.1183,  999.0000,  999.0000,    0.9897,    0.5119,    0.7752,    1.1444,    1.7998,    2.2636,    2.2841,    2.2241,    2.0032,    1.7614,    1.4835,    1.4280,    1.7103,    2.0248,  999.0000,  999.0000,  999.0000,  999.0000,  999.0000,  999.0000,    4.5260,    4.5653,    4.4179,    4.2704,    3.8245,    3.1822,    2.2949,    1.2666,    0.6807,    0.3161,    0.0354,   -0.2090,   -0.0301,    0.3054,    0.2871,    0.1583,   -0.6411,   -1.6149,   -2.1404,   -2.3646,   -2.3936,   -2.2723,   -2.9741,   -3.7602,   -4.0731,   -4.3452,   -4.2651,   -4.1674,   -4.2518,   -4.3498,   -5.1042,   -5.8954,   -7.4201,   -8.8963,  999.0000,  999.0000,  999.0000,  -12.8705,  -13.2631,  -13.5337,  -13.2284,
 10-AUG-2000 06:38:43.00,  999.0000,  999.0000,  999.0000,  999.0000,  999.0000,  999.0000,  999.0000,  999.0000,    1.0030,    1.0678,  999.0000,  999.0000,  999.0000,  999.0000,    2.0626,    2.0908,  999.0000,  999.0000,    1.3974,    1.4822,  999.0000,  999.0000,  999.0000,  999.0000,  999.0000,    5.0697,    4.9695,    4.9426,    4.1577,    2.9743,    1.8959,    0.8629,    0.2561,   -0.1376,   -0.3882,   -0.5770,   -0.1619,    0.4764,    0.7924,    1.0078,    0.3478,   -0.5398,   -1.9881,  999.0000,  999.0000,   -2.0162,   -2.8725,   -3.7947,   -4.0967,   -4.3453,   -4.3720,   -4.3876,   -4.0623,   -3.7489,   -4.4964,   -5.2623,   -6.3930,   -7.4840,   -8.1157,   -8.8607,  -10.5109,  -12.0403,  -12.8452,  -13.4946,  -13.4090,
 10-AUG-2000 06:43:48.00,    2.1417,    2.9022,  999.0000,  999.0000,    1.3662,    1.0012,    1.1065,    1.2632,    1.5587,    1.8392,  999.0000,  999.0000,  999.0000,  999.0000,  999.0000,  999.0000,    3.5596,    3.7725,  999.0000,  999.0000,  999.0000,  999.0000,  999.0000,  999.0000,    4.9552,    5.2614,    4.6913,  999.0000,  999.0000,    2.9328,    2.1047,    0.9153,    0.4737,    0.3051,   -0.0089,   -0.3857,   -0.3451,   -0.1501,    0.0528,    0.2582,   -0.3991,   -1.2807,   -1.8524,   -2.3585,   -2.4718,   -2.7623,   -3.5547,   -4.3961,   -4.7644,   -5.0991,   -4.9000,   -4.6743,   -4.5443,   -4.4320,   -5.5162,   -6.4346,   -7.8881,   -9.2970,  -10.1891,  -10.9017,  -11.5910,  -12.3068,  -13.1814,  -13.8653,  -13.6486,
 10-AUG-2000 06:48:52.00,    1.6819,    1.8666,  999.0000,  999.0000,    0.8901,    0.6693,    0.7834,    0.9688,  999.0000,  999.0000,    2.1033,    2.3220,  999.0000,  999.0000,  999.0000,  999.0000,  999.0000,  999.0000,    1.6231,    1.8158,  999.0000,  999.0000,  999.0000,  999.0000,    4.4930,    5.0284,  999.0000,    4.1395,    3.2081,  999.0000,  999.0000,    0.3095,   -0.2589,   -0.6238,   -0.8996,   -1.2465,   -1.3116,   -1.1696,   -1.0082,   -0.8019,   -1.1541,   -1.6516,   -2.1782,   -2.7110,  999.0000,  999.0000,  999.0000,   -3.4407,   -3.8048,   -4.1831,   -4.0220,   -3.8339,   -3.4973,   -3.1821,  999.0000,  999.0000,  999.0000,  999.0000,  999.0000,   -9.6350,  -10.1741,  -10.7472,  -11.5237,  -12.1717,  -12.2121,
 10-AUG-2000 06:53:56.00,  999.0000,  999.0000,  999.0000,    1.6029,    1.4449,    1.3277,    1.3408,    1.4132,  999.0000,  999.0000,    2.1110,    2.3093,  999.0000,  999.0000,    2.6977,    2.6450,  999.0000,  999.0000,    1.6576,    1.8115,  999.0000,  999.0000,    3.9708,    4.4398,    4.6812,    4.7066,    4.5301,    4.2775,    3.8065,    3.1917,    2.5241,    1.8262,    0.7388,   -0.5435,   -0.8677,   -1.5950,  999.0000,   -0.3009,   -0.0150,    0.2785,    0.0634,   -0.2840,   -0.8351,   -1.4294,   -1.6755,   -1.8637,   -2.3349,   -2.8415,   -3.3633,   -3.8865,   -3.9426,   -3.9753,   -3.8747,   -3.7960,   -5.2058,   -6.6011,   -7.7061,   -8.7730,   -9.3976,  -10.0310,  -10.7339,  -11.4317,  -12.0988,  -12.6612,  -12.7294,
 10-AUG-2000 06:59:01.00,    2.4230,    2.6852,    2.0020,    1.3632,    0.8951,    0.5172,    0.4280,    0.5938,    1.4496,    2.0194,    1.9273,    1.8073,    1.6317,    1.6368,    1.9557,    2.1068,  999.0000,  999.0000,    1.7952,    1.8200,    1.9955,    2.6623,    3.8355,    4.2277,    4.0445,    4.7515,    4.7470,    4.3134,    3.7118,    3.0677,    2.4359,    1.7865,    0.8505,   -0.2513,   -0.9398,   -1.4237,   -1.1171,   -0.5565,   -0.2681,    0.0240,   -0.5989,   -1.4426,   -2.0886,   -2.6928,   -2.8273,   -2.8835,   -3.0399,   -3.2088,   -3.6314,   -4.0760,   -3.9960,   -3.8898,   -3.7575,   -3.6508,   -5.1481,   -6.6407,   -8.0397,   -9.3641,   -9.8244,  -10.2872,  -10.7696,  -11.2503,  -11.7207,  -12.1105,  -12.1194,
 10-AUG-2000 07:06:26.00,    2.3631,    2.5045,    1.8418,    1.3280,    1.3865,    1.4262,    1.4057,    1.4539,    1.6880,    1.7115,    1.2478,    0.7938,    0.3593,    0.3410,    1.0462,    1.5613,  999.0000,  999.0000,  999.0000,  999.0000,  999.0000,  999.0000,  999.0000,  999.0000,    3.5994,    4.7305,    4.1336,    3.5507,    2.9179,    1.9795,    1.2100,    0.9032,    0.3203,   -1.5482,   -1.6945,   -1.2909,   -1.0756,  999.0000,  999.0000,    0.4179,   -0.0787,   -0.8347,   -1.5896,   -2.3442,   -2.0490,   -1.5788,   -2.0022,   -2.5373,   -2.9311,   -3.3129,   -3.2440,   -3.1526,   -3.2330,   -3.3436,   -5.1465,   -6.8914,   -8.0338,   -9.2465,   -9.6917,  -10.1289,  -10.5012,  -10.9002,  -11.4585,  -11.9091,  -11.8509,
 10-AUG-2000 07:13:10.00,    1.9442,    1.7730,    0.9450,    0.3791,    0.8209,    1.1366,    1.0488,    0.9424,  999.0000,  999.0000,  999.0000,  999.0000,    0.1573,    0.3117,  999.0000,  999.0000,    2.3985,    2.9536,  999.0000,  999.0000,  999.0000,  999.0000,  999.0000,  999.0000,    5.5291,    4.9837,    4.4361,  999.0000,  999.0000,    2.5828,    1.8646,    1.1240,    0.4640,  999.0000,   -1.5352,   -1.3512,   -1.3051,   -1.0225,   -0.7020,   -0.3697,   -0.7050,   -1.2140,   -2.0143,   -2.8762,   -2.7137,   -2.3804,   -2.5821,   -2.8506,   -3.5388,   -4.2631,   -3.9527,   -3.5907,   -3.7661,   -3.9688,  999.0000,  999.0000,  999.0000,   -9.3031,   -9.7522,  -10.1948,  -10.5846,  -10.9781,  -11.3930,  -11.8046,  -12.2002,
 10-AUG-2000 07:19:52.00,  999.0000,  999.0000,  999.0000,    1.3010,    1.2849,    1.2340,    1.0716,    0.9369,    0.8769,    0.8050,    0.7055,    0.6695,    0.7602,    0.8581,  999.0000,  999.0000,  999.0000,  999.0000,  999.0000,  999.0000,    1.6312,    2.3088,    3.5714,    4.1960,  999.0000,    4.3512,    4.3726,    4.3678,    3.7502,    2.6947,    2.0039,    1.5230,    0.8429,    0.0631,   -0.4941,   -0.9553,   -0.6720,   -0.1135,    0.4483,    1.0112,    0.5983,   -0.0683,   -0.6622,   -1.2408,   -1.2662,   -1.1994,   -1.6503,   -2.1659,   -2.9541,   -3.7659,   -3.4298,   -3.0365,   -3.9436,   -4.8679,   -5.5641,   -6.2660,   -7.0838,   -7.9189,   -8.9541,   -9.9297,  -10.4293,  -10.9528,  -11.6607,  -12.1825,  -12.0842,
 10-AUG-2000 07:26:35.00,  999.0000,  999.0000,  999.0000,  999.0000,  999.0000,  999.0000,    0.8878,    0.9131,  999.0000,  999.0000,    1.4288,    1.5202,  999.0000,  999.0000,  999.0000,  999.0000,  999.0000,  999.0000,    1.0338,    0.9963,    0.9963,    1.0212,  999.0000,  999.0000,    3.8939,  999.0000,  999.0000,    4.2628,    3.5939,    2.4941,    1.9254,    1.6622,    0.7453,   -0.4988,   -0.9973,   -1.1737,   -1.0555,   -0.8284,   -0.4028,    0.0849,   -0.4126,   -1.1662,   -1.7792,   -2.3625,   -1.9956,   -1.4705,   -1.9633,   -2.5834,   -3.2495,   -3.9196,   -3.3898,   -2.8001,   -3.8157,   -4.8543,   -5.7175,   -6.5896,   -7.6418,   -8.6757,   -9.4984,  -10.2524,  -10.4579,  -10.6778,  999.0000,  999.0000,  999.0000,
 10-AUG-2000 07:33:17.00,    1.5264,    1.6790,    1.3015,    0.9999,    0.9897,    0.9815,    0.9801,    0.9498,    0.8415,    0.7761,  999.0000,  999.0000,    0.8770,    1.1052,    1.6713,    1.9720,    1.8696,    1.7089,    1.4704,    1.4051,    1.5426,    1.5298,  999.0000,  999.0000,    3.8637,    4.9713,    4.8019,    3.6743,    2.7527,    1.9668,    1.5033,    1.2252,    0.5056,   -0.4350,   -0.7915,   -0.8957,   -0.4976,    0.0862,    0.6825,    1.2828,    0.7829,   -0.0030,   -0.6673,   -1.3059,   -0.8852,   -0.2880,   -1.0246,   -1.9279,   -2.5747,   -3.1993,   -2.6913,   -2.1268,   -3.5169,   -4.9323,   -5.9681,   -6.9897,   -7.7285,   -8.4561,   -9.0533,   -9.6703,  -10.4461,  -11.1067,  -11.0770,  -11.2060,  -12.0847,
 10-AUG-2000 07:40:00.00,  999.0000,  999.0000,  999.0000,  999.0000,  999.0000,  999.0000,  999.0000,  999.0000,    0.7334,    0.7631,  999.0000,  999.0000,    1.1077,    1.3120,    1.6719,    1.9127,    1.9727,    1.8376,    1.4426,    1.1965,    1.1248,    1.0959,  999.0000,  999.0000,    3.7162,    4.3349,    4.1218,    3.4218,    2.6057,    1.7133,    1.3663,    1.3332,    0.6587,   -0.3367,   -0.7900,   -1.0702,   -0.7863,   -0.3826,   -0.0775,    0.1990,   -0.2887,   -0.9751,   -1.5313,   -2.0600,   -1.4822,   -0.7199,   -1.5508,   -2.5807,   -3.1494,   -3.6785,   -3.6612,   -3.6165,   -4.8487,   -6.1008,   -7.3238,   -8.5177,   -9.1324,   -9.7304,  -10.1355,  -10.5135,  -10.6763,  -10.9468,  -11.8835,  -12.6874,  -12.6571,
 10-AUG-2000 07:46:43.00,    2.0222,    2.4764,    1.5372,    0.8033,    0.8589,    0.8573,    0.6730,    0.6798,    1.2036,    1.6197,  999.0000,  999.0000,  999.0000,  999.0000,  999.0000,  999.0000,    2.7897,    2.8466,  999.0000,  999.0000,    2.5767,    2.6808,    2.9851,    3.6022,    4.5033,    4.9489,    4.4423,    4.0000,    3.2706,    2.3911,    1.9878,    1.8583,    1.1575,    0.1708,   -0.2704,  999.0000,  999.0000,   -0.7506,   -0.4019,    0.0955,   -0.2613,   -0.8402,   -1.4122,   -1.9828,   -1.2960,   -0.3997,   -1.0084,   -1.8051,   -2.8946,   -4.0094,   -3.7104,   -3.3409,   -4.8791,   -6.4419,   -7.6275,   -8.7958,   -9.6191,  -10.3758,  -10.3611,  -10.3784,  -10.6499,  -10.9424,  999.0000,  999.0000,  999.0000,
 10-AUG-2000 07:53:29.00,    1.2937,    1.8689,    1.4080,    1.0351,    1.0000,    0.9394,    0.7975,    0.7247,    0.8388,    0.7005,   -0.0222,   -0.3411,  999.0000,  999.0000,  999.0000,  999.0000,    2.0995,    2.0817,    1.3897,    1.2354,    1.7108,    1.8454,  999.0000,  999.0000,  999.0000,  999.0000,  999.0000,    3.9847,    3.1423,    2.3518,    2.1136,    2.1930,    1.3391,    0.0182,   -0.5636,   -0.8261,   -0.6174,   -0.2346,    0.2064,    0.6656,    0.2201,   -0.4607,   -1.2765,   -2.1208,   -1.7608,   -1.2001,   -1.6447,   -2.2150,   -3.1375,   -4.0904,   -4.0831,   -4.0279,   -5.4217,   -6.8310,   -7.4307,   -8.0170,   -9.0800,  -10.0790,  -10.0676,   -9.9137,  -10.0788,  -10.3347,  -11.1342,  -11.7782,  -11.6873,
 10-AUG-2000 08:00:11.00,  999.0000,  999.0000,  999.0000,  999.0000,  999.0000,  999.0000,  999.0000,  999.0000,    1.3518,    1.0859,    0.1613,   -0.0437,    1.1896,    1.9911,    2.0423,    2.1771,  999.0000,  999.0000,  999.0000,  999.0000,  999.0000,  999.0000,    4.0102,    4.4269,    4.9843,    5.6838,    4.4057,    3.1276,    2.4061,    2.0509,    1.7000,    1.3515,    0.5215,   -0.5494,   -0.9972,   -1.1758,   -0.9288,   -0.4810,    0.2096,    0.8362,    0.5388,   -0.0226,   -0.7549,   -1.5232,   -1.1485,   -0.5833,   -1.5005,   -2.6029,   -3.5587,   -4.5020,   -4.1951,   -3.8259,   -5.7016,  999.0000,  999.0000,  999.0000,  999.0000,  999.0000,  999.0000,   -9.1670,   -9.6208,  -10.1184,  -10.8784,  -11.5430,  -11.7572,
 10-AUG-2000 08:06:53.00,    0.9951,    0.9340,    0.8740,    0.8225,    0.8034,    0.7179,    0.4194,    0.2375,  999.0000,  999.0000,  999.0000,  999.0000,  999.0000,  999.0000,  999.0000,  999.0000,  999.0000,  999.0000,  999.0000,  999.0000,    1.9681,    1.9752,  999.0000,  999.0000,  999.0000,    4.3718,    3.7297,    3.0875,    2.3457,    1.5384,    1.0873,    0.8411,    0.0995,   -0.8899,   -1.2755,   -1.4004,   -1.2875,  999.0000,  999.0000,   -0.5890,   -1.2114,   -2.0621,   -2.5274,   -2.9112,   -2.3865,   -1.7104,   -2.1077,   -2.6391,   -3.1181,   -3.5925,   -3.5941,   -3.5720,   -4.3085,   -5.0621,  999.0000,  999.0000,  999.0000,   -9.0377,   -9.7083,  -10.3314,  -10.5752,  -10.8975,  -11.6895,  -12.3433,  -12.3442,
 10-AUG-2000 08:13:36.00,    0.8474,    0.5886,  999.0000,  999.0000,  999.0000,  999.0000,  999.0000,  999.0000,   -0.0566,   -0.0371,  999.0000,  999.0000,  999.0000,  999.0000,    1.3527,    1.4953,    1.4324,    1.3934,    1.3861,    1.6007,  999.0000,  999.0000,    3.0249,    3.1596,  999.0000,    4.2799,    4.3390,    4.3982,    3.7711,    2.6921,    2.1610,    1.9450,    0.8448,   -0.6976,   -1.2366,   -1.3421,   -1.2654,   -1.0459,   -0.5543,    0.0449,   -0.4085,   -1.1357,   -1.7452,   -2.3151,   -2.1076,   -1.7132,   -2.0662,   -2.4986,   -2.8902,   -3.2784,   -3.4692,   -3.6502,   -4.3854,   -5.1186,   -6.3822,   -7.7082,   -7.9992,   -8.3107,   -8.8609,   -9.4351,  -10.2004,  -10.9441,  -11.7044,  -12.2113,  -11.9191,
 10-AUG-2000 08:20:22.00,    0.5735,    0.5751,    0.5707,    0.5748,    0.6114,    0.5856,    0.3603,    0.2463,    0.4336,    0.5758,  999.0000,  999.0000,  999.0000,  999.0000,  999.0000,  999.0000,    0.8421,    0.9134,    1.0289,    1.4692,  999.0000,  999.0000,  999.0000,  999.0000,    5.5728,    5.7297,    5.3658,    4.9478,    4.3139,    3.5346,    2.8939,    2.5037,    1.2793,   -0.3293,   -1.2049,   -1.8172,   -1.9219,  999.0000,  999.0000,  999.0000,  999.0000,  999.0000,  999.0000,  999.0000,  999.0000,   -1.0253,   -2.0614,   -3.2475,   -3.3293,   -3.3159,   -3.6144,   -3.9286,  999.0000,  999.0000,  999.0000,   -8.7742,   -9.1835,   -9.5114,   -9.6542,   -9.8047,  -10.1005,  -10.3446,  999.0000,  999.0000,  999.0000,
 10-AUG-2000 08:27:06.00,  999.0000,    0.2874,    0.4659,    0.6432,    0.8158,    0.9536,    0.9799,    0.8755,  999.0000,  999.0000,   -0.4982,   -0.6454,  999.0000,  999.0000,  999.0000,  999.0000,    1.7221,    2.1117,    2.3897,    2.6259,    2.8131,    2.8680,  999.0000,  999.0000,  999.0000,  999.0000,  999.0000,    4.5938,    3.8113,    3.0287,    2.1703,    1.2359,  999.0000,   -0.8663,   -1.5391,   -2.1100,   -2.2768,  999.0000,  999.0000,  999.0000,  999.0000,  999.0000,  999.0000,   -2.4806,   -1.9550,   -1.3130,   -2.0962,   -3.0575,   -3.6816,   -4.2765,   -4.3654,   -4.4290,  999.0000,  999.0000,  999.0000,  999.0000,  999.0000,   -8.6129,   -8.9775,   -9.3238,  999.0000,  999.0000,  999.0000,  999.0000,  999.0000,
 10-AUG-2000 08:33:50.00,  999.0000,  999.0000,  999.0000,    0.2319,    0.5742,    0.9131,    1.2408,    1.4121,    1.1605,    1.0081,  999.0000,  999.0000,    1.2407,    1.3151,    1.3838,    1.5815,  999.0000,  999.0000,  999.0000,  999.0000,    3.5492,    3.5318,  999.0000,  999.0000,  999.0000,  999.0000,  999.0000,    4.1571,    3.7285,    3.2999,    2.8917,    2.4952,    1.0539,   -1.0027,   -1.5969,   -2.1099,   -1.8027,   -1.5270,   -1.0136,   -0.3704,   -0.3395,   -0.4678,   -1.5157,   -2.7583,   -2.4527,   -1.8892,   -2.3953,   -3.0352,   -3.4630,   -3.8726,   -4.2736,   -4.6742,   -5.8397,   -7.0095,   -7.6880,   -8.3360,   -8.3733,   -8.4395,   -8.8385,   -9.2731,   -9.9910,  -10.6892,  -11.2700,  -11.6444,  -11.0442,
 10-AUG-2000 08:40:32.00,    0.4211,    0.0391,  999.0000,  999.0000,    0.6118,    0.7984,    0.9710,    1.0737,    0.9874,    0.9435,  999.0000,  999.0000,    1.1059,    1.1520,    1.1842,    1.3151,  999.0000,  999.0000,    2.1577,    2.5830,  999.0000,  999.0000,  999.0000,  999.0000,    5.5552,    6.1496,  999.0000,    4.9007,    4.0337,    3.1476,    2.6369,    2.3422,    1.4042,  999.0000,  999.0000,   -2.3456,   -2.3953,   -2.0042,   -1.4018,   -0.7334,   -0.4234,   -0.2066,   -1.0849,   -2.1948,   -2.3242,   -2.2901,   -2.7450,   -3.2610,   -3.1896,   -3.0531,   -3.3361,   -3.6399,   -4.5498,   -5.4651,   -6.1240,   -6.9459,   -7.3733,   -7.8024,   -8.2509,   -8.6860,   -8.7629,   -9.1377,   -9.7182,  -10.1700,  -10.0142,
 10-AUG-2000 08:47:14.00,  999.0000,   -0.2770,  999.0000,  999.0000,    0.0105,    0.1096,    0.2194,    0.2918,  999.0000,  999.0000,    0.2062,    0.4316,    1.1645,    1.5720,    1.4140,    1.5223,  999.0000,  999.0000,    3.0606,    3.6336,  999.0000,  999.0000,  999.0000,  999.0000,    6.8521,    6.6860,    6.1131,    5.5357,    4.6452,    3.5487,    2.6858,    1.9572,    0.9993,   -0.0734,   -1.0067,   -1.8798,   -1.4611,   -0.5648,   -0.6976,   -1.1521,   -1.3153,   -1.4028,   -2.0501,   -2.8157,   -2.7410,   -2.5261,   -2.9261,   -3.4030,   -4.3373,   -4.6956,   -5.0453,  999.0000,  999.0000,  999.0000,  999.0000,   -7.9342,   -9.0246,  -10.0475,  -10.2895,  -10.5473,  999.0000,  999.0000,  999.0000,  999.0000,  999.0000,
 10-AUG-2000 08:53:57.00,  999.0000,  999.0000,  999.0000,  999.0000,  999.0000,  999.0000,  999.0000,  999.0000,  999.0000,  999.0000,  999.0000,  999.0000,  999.0000,  999.0000,  999.0000,  999.0000,  999.0000,  999.0000,  999.0000,  999.0000,  999.0000,  999.0000,  999.0000,  999.0000,    5.2131,    5.5016,    5.6366,    5.8097,    5.1084,    3.8515,    3.1467,    2.8507,    1.7708,    0.3484,   -0.7312,   -1.6626,   -1.4210,   -0.7458,   -1.0809,   -1.7319,   -1.6818,   -1.4494,   -1.7305,   -2.1201,   -2.1419,   -2.1023,   -2.8175,   -3.6271,   -3.6470,   -3.5990,   -4.3521,   -5.1452,   -5.8485,   -6.5390,   -6.5224,   -6.5408,   -7.2557,   -7.9483,   -8.3816,   -8.8335,   -9.4341,  -10.0251,  -10.5581,  -11.0420,  -11.2939,
 10-AUG-2000 09:00:39.00,    0.1485,   -0.1424,  999.0000,  999.0000,   -0.0174,    0.0269,    0.0796,    0.1619,    0.3243,    0.4116,  999.0000,  999.0000,  999.0000,  999.0000,  999.0000,  999.0000,  999.0000,  999.0000,  999.0000,  999.0000,  999.0000,  999.0000,  999.0000,  999.0000,  999.0000,    5.5016,    5.1956,  999.0000,  999.0000,  999.0000,  999.0000,    3.3210,    2.6174,    1.7284,    0.6643,   -0.4756,   -0.8633,   -0.9731,   -1.1266,   -1.2937,   -1.0449,   -0.6880,   -0.7366,   -0.8709,   -1.3621,   -1.9127,   -2.6112,   -3.3283,   -3.6869,   -4.0147,   -4.8104,   -5.6293,   -6.5639,   -7.4777,   -6.9947,   -6.5775,   -7.4727,   -8.3199,   -8.6095,   -8.9434,   -9.6315,  -10.2524,  -10.4703,  -10.7088,  -11.0445,
 10-AUG-2000 09:07:22.00,  999.0000,   -0.2173,    0.0387,    0.1440,   -0.3300,   -0.6994,   -0.7345,   -0.7199,   -0.5707,   -0.3517,    0.0287,    0.3302,  999.0000,  999.0000,    0.7625,    1.0252,  999.0000,  999.0000,  999.0000,  999.0000,    3.2391,    3.8312,    4.5773,    5.2490,    4.8796,    5.2219,    5.2474,    4.9819,    4.2681,    3.2287,    2.7446,    2.7650,    2.0451,    1.0595,    0.2826,   -0.4041,   -0.5295,   -0.4474,   -0.4820,   -0.5531,   -0.4770,   -0.3625,   -0.7133,   -1.1625,   -1.3829,   -1.5651,   -2.3191,   -3.1446,   -3.6156,   -4.0560,   -5.0975,   -6.1690,   -6.6874,   -7.1906,   -7.3075,   -7.4606,   -8.3362,   -9.1848,   -9.7197,  -10.2341,  -10.5856,  -10.9242,  -11.1856,  -11.4527,  -11.7470,
 10-AUG-2000 09:14:52.00,  999.0000,  999.0000,  999.0000,   -0.0911,   -0.3090,   -0.3984,   -0.0766,    0.1829,    0.2736,    0.3657,  999.0000,  999.0000,  999.0000,  999.0000,    0.8436,    0.9518,    1.0791,    1.3249,    1.7286,    2.1324,  999.0000,  999.0000,  999.0000,  999.0000,    5.7535,    5.8186,    5.6698,  999.0000,  999.0000,  999.0000,  999.0000,    4.0783,    3.2452,    2.1180,    0.9151,   -0.3204,   -0.3299,    0.1137,   -0.1643,   -0.6679,   -0.6906,   -0.5884,   -0.8339,   -1.1530,   -1.4220,   -1.6827,   -2.0967,   -2.6519,   -3.0795,   -3.5986,   -4.6474,   -5.7281,   -6.2003,   -6.6634,   -7.1647,   -7.6395,   -7.5852,   -7.5785,   -8.1228,   -8.6381,   -8.9214,   -9.2667,   -9.9830,  -10.7043,  -11.4491,
 10-AUG-2000 09:21:34.00,  999.0000,  999.0000,  999.0000,    0.5168,    0.5372,    0.5514,    0.5456,    0.6257,  999.0000,  999.0000,  999.0000,  999.0000,    2.1886,    2.2569,  999.0000,  999.0000,    1.1882,    1.2705,  999.0000,  999.0000,    3.2696,    3.6105,  999.0000,  999.0000,    5.5725,    5.5959,    5.3265,    4.9487,    4.0934,    2.9903,    2.5913,    2.6776,    1.8866,    0.6805,   -0.3042,   -1.1023,   -0.9804,   -0.5097,   -0.9608,   -1.7001,   -1.4472,   -0.9364,   -1.3573,   -1.9754,   -2.4270,   -2.7756,  999.0000,  999.0000,  999.0000,   -4.4485,   -5.5608,   -6.7060,   -7.1560,   -7.5826,   -7.2567,   -6.9710,   -7.4893,   -8.0045,   -8.4894,   -8.9715,   -9.4697,   -9.9932,  -10.1940,  -10.5522,  -11.6535,
 10-AUG-2000 09:28:16.00,  999.0000,  999.0000,  999.0000,  999.0000,  999.0000,  999.0000,  999.0000,  999.0000,  999.0000,  999.0000,  999.0000,  999.0000,  999.0000,  999.0000,  999.0000,  999.0000,  999.0000,  999.0000,    2.2909,    2.5817,    3.0045,    3.6455,    4.5116,    5.1790,    4.8201,    5.2532,    5.1140,  999.0000,  999.0000,    3.4080,    2.8973,  999.0000,  999.0000,  999.0000,  999.0000,   -0.0165,    0.2012,    0.7400,    0.2269,   -0.6151,   -0.8058,   -0.8272,   -1.0723,   -1.3647,  999.0000,  999.0000,  999.0000,   -2.8351,   -3.4629,   -4.1127,   -5.4682,   -6.8590,   -7.2686,   -7.6580,   -7.7749,   -7.8895,   -7.9555,   -8.0585,  999.0000,  999.0000,  999.0000,  -10.0144,  -10.5476,  -11.1582,  -12.0772,
 10-AUG-2000 09:34:58.00,  999.0000,  999.0000,  999.0000,  999.0000,   -0.0835,    0.0979,    0.2793,    0.4682,  999.0000,  999.0000,  999.0000,  999.0000,    1.5142,    1.6077,  999.0000,  999.0000,    1.2852,    1.1776,  999.0000,  999.0000,  999.0000,  999.0000,  999.0000,  999.0000,    5.9631,    6.3432,    6.1640,  999.0000,  999.0000,    3.9427,    3.6550,    3.6986,    3.1200,    2.2301,    1.0174,   -0.3347,   -0.4326,   -0.0668,   -0.5473,   -1.2923,   -1.4153,   -1.3766,   -1.5089,   -1.6775,   -2.0154,   -2.3816,   -2.8145,   -3.2557,   -4.3779,   -5.5587,   -6.8584,   -8.1640,   -8.4361,   -8.6789,   -8.1444,   -7.6481,   -7.9134,   -8.2065,   -8.7416,   -9.2462,   -9.1411,   -9.2090,  -10.3135,  -11.4963,  999.0000,
 10-AUG-2000 09:41:42.00,  999.0000,  999.0000,  999.0000,    0.5809,  999.0000,  999.0000,    0.9891,    1.0071,    0.7057,    0.6709,    1.2532,    1.5939,    1.4520,    1.2668,    1.0064,    0.9220,    1.1049,    1.4480,  999.0000,  999.0000,  999.0000,  999.0000,  999.0000,  999.0000,    5.4511,    5.5108,    5.7370,    6.0882,    5.2082,    3.5176,    2.8421,    2.7506,    2.1733,    1.3530,    0.2067,   -1.0803,   -0.7772,    0.1137,   -0.3316,   -1.1946,   -1.5442,   -1.7604,   -1.8869,   -1.9945,   -2.1282,   -2.2663,   -2.7745,   -3.3290,   -4.4376,   -5.5940,   -7.0990,   -8.6344,   -8.5372,   -8.4130,   -8.2385,   -8.0803,   -8.2484,   -8.4592,  999.0000,  999.0000,  999.0000,  999.0000,  999.0000,  999.0000,  999.0000,
 10-AUG-2000 09:48:24.00,  999.0000,  999.0000,  999.0000,    0.7507,    0.3704,    0.1015,    0.1893,    0.2755,    0.3574,    0.4081,  999.0000,  999.0000,  999.0000,  999.0000,  999.0000,  999.0000,    0.2571,    0.6230,    1.5051,    2.3617,    3.1882,    3.9356,    4.6012,    5.1089,    5.5015,    5.4699,    5.3773,    5.2389,    4.4673,    3.2790,    2.9617,    3.1455,    2.6623,    1.8455,    0.8133,   -0.3119,   -0.1248,    0.5474,    0.3561,    0.0174,   -0.1180,   -0.3315,   -0.7791,   -1.3060,   -1.6266,   -1.9130,   -2.5819,   -3.2987,   -4.6212,   -5.9959,  999.0000,  999.0000,  999.0000,  999.0000,  999.0000,  999.0000,  999.0000,  999.0000,  999.0000,  999.0000,  999.0000,  999.0000,  999.0000,  -12.2315,  999.0000,
 10-AUG-2000 09:55:09.00,  999.0000,  999.0000,  999.0000,   -0.0042,   -0.2061,   -0.2401,    0.2632,    0.5879,    0.4299,    0.6458,    1.7269,    2.3219,  999.0000,  999.0000,    1.1917,    0.9780,    1.0116,    1.2566,    1.7833,    2.3490,  999.0000,  999.0000,    4.1835,    4.7950,    5.1436,    5.0738,    4.8093,    4.4488,    3.6496,    2.5617,    2.3774,    2.7129,    2.3263,    1.5785,    0.5199,   -0.6730,   -0.7496,   -0.4135,   -0.5658,  999.0000,  999.0000,   -1.5171,   -1.8314,   -2.1433,   -2.3800,   -2.6042,   -3.3176,   -4.0922,   -5.1768,   -6.2292,   -7.4815,   -6.3087,   -7.9383,   -7.1218,   -7.4875,   -7.9059,   -7.9335,   -8.0361,   -8.2753,   -8.4889,   -8.7707,   -9.2049,  -10.7118,  -12.2553,  -13.6716,
 10-AUG-2000 10:01:54.00,  999.0000,  999.0000,  999.0000,  999.0000,  999.0000,  999.0000,  999.0000,  999.0000,  999.0000,  999.0000,  999.0000,  999.0000,  999.0000,  999.0000,  999.0000,  999.0000,  999.0000,  999.0000,  999.0000,  999.0000,  999.0000,  999.0000,  999.0000,  999.0000,  999.0000,  999.0000,  999.0000,  999.0000,  999.0000,  999.0000,  999.0000,  999.0000,  999.0000,  999.0000,  999.0000,  999.0000,  999.0000,  999.0000,  999.0000,  999.0000,  999.0000,  999.0000,  999.0000,  999.0000,  999.0000,  999.0000,  999.0000,  999.0000,  999.0000,  999.0000,  999.0000,  999.0000,  999.0000,  999.0000,  999.0000,  999.0000,  999.0000,  999.0000,  999.0000,  999.0000,  999.0000,  999.0000,  999.0000,  999.0000,  999.0000,
 10-AUG-2000 10:05:14.00,  999.0000,  999.0000,  999.0000,   -0.4254,   -1.0077,   -1.3299,   -0.8208,   -0.4468,   -0.4380,   -0.0448,    1.2382,    2.0185,  999.0000,  999.0000,  999.0000,  999.0000,    0.8969,    0.8481,  999.0000,  999.0000,  999.0000,  999.0000,  999.0000,  999.0000,  999.0000,    4.8803,    4.1788,    3.3756,    2.9747,    2.8963,    2.9477,    3.1372,    2.5813,    1.6527,    0.9251,    0.2845,    0.1708,    0.2519,    0.1883,    0.1266,   -0.1383,   -0.5266,   -0.8324,   -1.2254,   -1.5843,   -1.9376,   -2.7243,   -3.5651,  999.0000,  999.0000,  999.0000,   19.3745,  999.0000,  999.0000,  999.0000,   -8.6959,  999.0000,  999.0000,  999.0000,  999.0000,  999.0000,  999.0000,  999.0000,  999.0000,  999.0000,
 10-AUG-2000 10:11:57.00,  999.0000,  999.0000,  999.0000,   -0.7947,   -0.8503,   -0.7776,   -0.2949,    0.1670,    0.5722,    1.1690,    2.2091,    2.7046,  999.0000,  999.0000,    0.9249,    0.6788,    0.9596,    1.2115,  999.0000,  999.0000,  999.0000,  999.0000,  999.0000,  999.0000,  999.0000,    5.1196,    4.7576,  999.0000,    3.5555,    3.8170,    3.8710,    4.1122,    3.3752,    2.1489,    1.2919,    0.5944,    0.5100,    0.6523,    0.3567,  999.0000,  999.0000,   -0.9741,  999.0000,  999.0000,  999.0000,  999.0000,  999.0000,  999.0000,  999.0000,  999.0000,  999.0000,  999.0000,  999.0000,  999.0000,  999.0000,   -8.6666,  999.0000,  999.0000,  999.0000,  999.0000,  999.0000,  999.0000,  999.0000,  -13.4182,  999.0000,
 10-AUG-2000 10:18:39.00,  999.0000,   -1.3656,   -0.8755,   -0.4138,  999.0000,  999.0000,  999.0000,  999.0000,  999.0000,  999.0000,    2.0568,    1.9627,    0.9752,    0.1828,   -0.2707,   -0.2985,    0.3203,    0.9874,    1.7189,    2.4881,    3.3014,    3.6869,  999.0000,  999.0000,  999.0000,    5.5303,    4.7447,    3.8170,    3.5078,    3.4803,    3.5202,    3.5988,    3.0320,    2.1878,    1.5060,    0.8604,    0.7206,    0.7497,    0.5487,    0.2758,   -0.1567,   -0.6309,   -1.1688,   -1.7202,   -1.6539,   -1.4846,   -2.3341,   -3.3110,  999.0000,  999.0000,  999.0000,  999.0000,  999.0000,   -7.7214,   -7.7482,   -7.9325,   -8.4572,   -9.1824,  999.0000,  999.0000,  999.0000,  -10.6380,  -11.8206,  -13.0450,  -14.4046,
 10-AUG-2000 10:25:21.00,  999.0000,    0.1087,  999.0000,  999.0000,  999.0000,  999.0000,  999.0000,  999.0000,    0.3110,    0.4571,  999.0000,  999.0000,    1.7101,    1.7215,    1.0266,    0.5710,    0.4788,    0.7727,  999.0000,  999.0000,    3.1975,    3.4935,  999.0000,  999.0000,    4.0778,  999.0000,  999.0000,    3.0887,    2.9814,    3.0342,    3.2359,    3.5234,    3.2189,  999.0000,  999.0000,    1.3283,    0.7683,    0.0827,   -0.2287,   -0.4350,   -1.1449,   -1.9578,   -2.3508,   -2.6549,   -2.7522,   -2.8149,   -3.6543,   -4.5908,  999.0000,  999.0000,  999.0000,   -8.4388,   -8.4594,   -8.3076,  999.0000,  999.0000,  999.0000,  -10.2793,  -10.5305,  -10.7901,  -11.1166,  -11.6418,  -13.3573,  -14.8999,  999.0000,
 10-AUG-2000 10:32:04.00,  999.0000,    0.5111,    0.2390,   -0.0793,   -0.5753,   -0.8688,  999.0000,  999.0000,  999.0000,  999.0000,  999.0000,  999.0000,  999.0000,  999.0000,  999.0000,  999.0000,  999.0000,  999.0000,  999.0000,  999.0000,  999.0000,  999.0000,    5.1469,    5.5008,  999.0000,  999.0000,  999.0000,    3.9935,    3.7616,    3.5073,    3.5915,    3.8705,    3.7560,    3.4448,    2.8879,    2.2250,    1.4900,  999.0000,  999.0000,   -0.5663,   -1.3992,   -2.2844,   -2.5765,   -2.7431,   -2.4283,   -2.0333,   -3.1898,   -4.5403,   -5.5630,   -6.6268,  999.0000,  999.0000,  999.0000,   -7.2016,   -7.4233,   -7.6605,   -8.2059,   -8.7517,   -9.3040,   -9.8399,  -10.2460,  -10.8500,  -12.6407,  -14.3292,  999.0000,
 10-AUG-2000 10:38:48.00,  999.0000,  999.0000,  999.0000,    0.5628,    0.2482,    0.0374,  999.0000,  999.0000,    0.3995,    0.6885,    1.3673,    1.6224,  999.0000,  999.0000,   -0.1528,   -0.2721,    0.3262,    1.0588,    1.9702,    2.6175,    2.9554,    3.2934,  999.0000,  999.0000,    4.1968,  999.0000,  999.0000,    4.0791,    3.8038,    3.2972,    3.2259,    3.4828,    3.0638,    2.2727,    1.6965,    1.2715,    0.3691,   -0.6780,   -0.9706,   -1.0274,   -1.6740,   -2.4740,   -2.5613,   -2.4979,   -2.3080,   -2.0970,   -3.3251,   -4.6757,  999.0000,  999.0000,  999.0000,   -9.1000,   -8.6652,   -8.2196,   -8.5795,   -8.9512,   -9.5578,  -10.1739,  -10.8994,  -11.5971,  -12.0732,  -12.6486,  -13.8188,  -15.0976,  -16.8894,
 10-AUG-2000 10:45:32.00,  999.0000,  999.0000,  999.0000,  999.0000,   -1.1997,   -0.8646,   -0.5296,   -0.0912,    0.6271,    1.2298,    1.5648,    1.7652,    1.6964,    1.2894,    0.2946,   -0.7002,  999.0000,  999.0000,  999.0000,  999.0000,  999.0000,  999.0000,  999.0000,  999.0000,    4.3915,  999.0000,  999.0000,    4.0425,    4.0078,  999.0000,  999.0000,    4.0725,    3.7924,  999.0000,  999.0000,    2.3986,    1.6089,    0.7035,    0.1238,   -0.3540,   -0.8892,   -1.5074,   -1.5255,   -1.4500,   -1.5441,   -1.6668,  999.0000,  999.0000,  999.0000,   -7.3513,   -8.0440,   -8.6992,   -8.1034,   -7.4984,   -7.5585,   -7.6487,   -8.3372,   -9.0510,  -10.0568,  -11.0446,  -11.8891,  -12.8221,  -14.2852,  -15.7284,  -17.0779,
 10-AUG-2000 10:52:14.00,  999.0000,  999.0000,  999.0000,    1.3316,    0.2081,   -0.6242,   -0.5247,   -0.2262,    0.6106,    1.2665,    1.5034,    1.5785,    1.3298,    1.1807,  999.0000,  999.0000,    1.2531,    1.2773,  999.0000,  999.0000,  999.0000,  999.0000,  999.0000,  999.0000,  999.0000,    6.2832,    5.6318,  999.0000,  999.0000,    3.5785,    3.4729,    3.6694,    3.5113,    3.1759,    2.7411,    2.2635,    1.3553,    0.2880,   -0.4438,   -1.0707,  999.0000,  999.0000,  999.0000,   -1.7410,   -1.8431,   -1.9424,   -3.1255,   -4.4440,   -5.6586,   -6.8642,   -7.6788,   -8.4739,   -8.2064,   -7.9661,   -8.3693,   -8.8157,   -8.9654,   -9.2220,  -10.1060,  -10.9199,  -12.1568,  -13.4556,  -15.1262,  -16.6115,  -17.2219,
 10-AUG-2000 10:58:58.00,  999.0000,  999.0000,  999.0000,  999.0000,  999.0000,  999.0000,  999.0000,  999.0000,  999.0000,  999.0000,    1.3513,    1.2636,    1.1758,    0.9010,    0.3012,    0.2121,  999.0000,  999.0000,  999.0000,  999.0000,    3.6451,    4.3317,  999.0000,  999.0000,  999.0000,  999.0000,  999.0000,    4.4085,    4.0417,    3.7377,    3.8606,    4.2292,    3.8865,    3.1880,    2.7735,    2.4816,    1.5617,    0.4097,   -0.3426,   -0.9699,   -1.3487,   -1.6629,   -1.6438,   -1.5541,   -1.6245,   -1.7215,   -2.9186,   -4.2532,   -6.0643,   -7.9164,   -8.3236,   -8.6587,  999.0000,  999.0000,  999.0000,   -8.9699,  999.0000,  999.0000,  999.0000,  -10.5798,  -11.7341,  -12.9627,  -14.6371,  -16.2068,  -17.2821,
 10-AUG-2000 11:05:40.00,  999.0000,  999.0000,  999.0000,    1.4505,    1.1959,    0.8856,    0.3970,    0.1165,  999.0000,  999.0000,    0.9636,    1.0242,  999.0000,  999.0000,   -0.1235,   -0.0446,    0.7351,    1.5180,  999.0000,  999.0000,  999.0000,  999.0000,    5.4533,    5.6205,    5.9584,    6.6032,    6.2448,    5.2014,    4.6736,    4.5598,    4.6087,    4.7091,    4.2832,    3.5941,    2.8944,    2.2282,    1.3435,    0.3214,   -0.1775,   -0.5292,   -0.9580,   -1.4070,   -1.4579,   -1.4245,   -1.5851,   -1.7779,   -3.7149,   -5.8698,   -7.0352,   -8.1152,   -8.2373,   -8.3116,   -8.2231,   -8.1357,   -8.2754,   -8.4481,   -9.2775,  -10.0996,  -10.8364,  -11.6201,  -12.7786,  -14.0382,  -15.9032,  -17.5937,  -18.5683,
 10-AUG-2000 11:12:25.00,  999.0000,  999.0000,  999.0000,  999.0000,  999.0000,  999.0000,  999.0000,  999.0000,  999.0000,  999.0000,    1.6063,    1.5205,  999.0000,  999.0000,  999.0000,  999.0000,    1.0914,    1.0055,  999.0000,  999.0000,  999.0000,  999.0000,  999.0000,  999.0000,  999.0000,    5.4327,    5.1234,  999.0000,  999.0000,    4.3327,    4.3876,    4.8057,    4.5095,    3.8350,    2.9760,  999.0000,  999.0000,   -0.0897,   -0.5292,   -0.7808,   -1.0010,   -1.2131,   -1.3143,   -1.3920,   -1.7662,   -2.1898,   -4.0573,   -6.1052,   -7.0700,   -7.9415,   -7.8581,   -7.7270,   -8.0566,   -8.3898,   -8.4855,   -8.5945,   -8.9676,   -9.3821,  -10.2760,  -11.2165,  -12.5298,  -13.8597,  -15.2879,  -16.5763,  999.0000,
 10-AUG-2000 11:19:10.00,  999.0000,  999.0000,  999.0000,  999.0000,  999.0000,  999.0000,    1.0162,    0.8896,  999.0000,  999.0000,  999.0000,  999.0000,    0.9945,    1.0154,  999.0000,  999.0000,  999.0000,  999.0000,  999.0000,  999.0000,  999.0000,  999.0000,  999.0000,  999.0000,  999.0000,  999.0000,  999.0000,  999.0000,  999.0000,    4.5246,    4.3791,  999.0000,  999.0000,    3.6183,    3.0074,    2.2794,    1.3120,    0.2560,   -0.2727,   -0.6367,   -0.7107,   -0.7094,   -0.6477,   -0.5732,   -0.9962,   -1.5021,   -3.5245,   -5.7365,   -6.6663,   -7.4857,   -7.6856,   -7.8545,   -8.3702,   -8.8856,   -9.0366,   -9.1918,   -9.4320,   -9.7003,  -10.2943,  -10.9492,  -12.0915,  -13.3023,  -14.9235,  -16.4541,  -17.5565,
 10-AUG-2000 11:25:52.00,  999.0000,    1.4826,    1.1183,    0.7166,    0.1709,   -0.2907,   -0.4839,   -0.5109,  999.0000,  999.0000,    0.7553,    1.0419,    1.0580,    0.8738,    0.3413,    0.2252,    0.7416,    1.1745,  999.0000,  999.0000,  999.0000,  999.0000,  999.0000,  999.0000,  999.0000,  999.0000,  999.0000,  999.0000,    4.7121,    4.8717,    5.3138,    5.7560,    5.1723,    4.0755,    3.1113,    2.2044,    1.2540,    0.2875,   -0.3122,   -0.7972,   -1.0608,   -1.2668,   -1.1417,   -0.9467,   -1.4537,   -2.0778,   -3.7684,   -5.5923,   -6.0494,   -6.3888,   -6.5620,   -6.7269,   -7.6982,   -8.6729,   -9.0525,   -9.4289,   -9.7410,  -10.0751,  -10.6620,  -11.3238,  -12.5829,  -13.9222,  -15.7417,  -17.3894,  -18.2256,
 10-AUG-2000 11:32:35.00,  999.0000,  999.0000,  999.0000,  999.0000,  999.0000,  999.0000,  999.0000,  999.0000,    0.7128,    0.9637,    1.3806,    1.6566,    1.6507,    1.3505,    0.5385,    0.2673,    0.8174,    1.3674,  999.0000,  999.0000,  999.0000,  999.0000,  999.0000,  999.0000,  999.0000,  999.0000,  999.0000,  999.0000,  999.0000,    4.9074,    5.0593,    5.2112,    4.5256,    3.4212,    2.5286,    1.7275,    0.8965,    0.0546,   -0.4853,   -1.0332,   -1.2283,   -1.2709,   -1.1527,   -0.9802,   -1.7506,   -2.6138,   -4.3252,   -6.2610,   -6.4186,   -6.4285,   -6.5693,   -6.7166,   -7.6851,   -8.6592,   -9.2221,   -9.7258,   -9.8142,   -9.9188,  -10.6415,  -11.4267,  -12.9642,  -14.5179,  -16.1352,  -17.6829,  -18.7235,
 10-AUG-2000 11:39:17.00,  999.0000,    1.3636,    1.7191,    2.0100,  999.0000,  999.0000,  999.0000,  999.0000,  999.0000,  999.0000,    2.3095,    2.1429,  999.0000,  999.0000,    0.3874,    0.2355,  999.0000,  999.0000,    1.7540,    2.2602,  999.0000,  999.0000,  999.0000,  999.0000,  999.0000,  999.0000,  999.0000,  999.0000,  999.0000,    5.8679,    5.8986,    5.9292,    5.3730,    4.5231,    3.4370,    2.2489,    1.3609,    0.5839,    0.2705,  999.0000,  999.0000,   -0.2692,   -0.6704,   -1.1169,  999.0000,  999.0000,  999.0000,   -6.5561,   -7.2212,   -7.8311,   -7.9437,   -8.0315,   -8.1497,   -8.2730,  999.0000,  999.0000,  999.0000,   -9.8606,  999.0000,  999.0000,  999.0000,  999.0000,  999.0000,  999.0000,  999.0000,
 10-AUG-2000 11:46:00.00,  999.0000,    0.2673,  999.0000,  999.0000,  999.0000,  999.0000,  999.0000,  999.0000,  999.0000,  999.0000,  999.0000,  999.0000,    1.8685,    2.0140,  999.0000,  999.0000,  999.0000,  999.0000,  999.0000,  999.0000,  999.0000,  999.0000,  999.0000,  999.0000,  999.0000,  999.0000,  999.0000,  999.0000,  999.0000,    6.2454,    6.2743,    6.5617,    5.4381,    3.6656,    2.6704,    1.9314,    0.9842,   -0.0399,   -0.2580,   -0.2242,   -0.3180,   -0.4449,   -1.1168,   -1.9039,   -3.2926,   -4.7816,   -5.1539,   -5.3867,   -5.9373,   -6.5152,   -7.4245,   -8.3504,   -8.3852,   -8.4141,   -8.9574,   -9.4913,   -9.8366,  -10.2169,  -11.0029,  -11.8997,  -13.6819,  -15.4038,  999.0000,  999.0000,  999.0000,
 10-AUG-2000 11:52:43.00,  999.0000,  999.0000,  999.0000,   -0.5544,  999.0000,  999.0000,    0.0930,    0.3891,    0.9026,    1.3830,    1.7868,    1.9625,  999.0000,  999.0000,    1.1220,    1.0297,    1.2228,    1.4160,  999.0000,  999.0000,  999.0000,  999.0000,  999.0000,  999.0000,  999.0000,  999.0000,  999.0000,  999.0000,  999.0000,    5.3298,    5.0588,  999.0000,  999.0000,    3.8774,    2.8274,    1.5365,    0.8430,    0.3703,    0.2433,    0.2242,    0.0416,   -0.1836,   -0.7966,   -1.4916,   -2.7126,   -4.0214,   -4.9682,   -5.8699,   -6.2171,   -6.5165,   -6.9841,   -7.4600,   -7.9292,   -8.3972,   -8.8021,   -9.2083,   -9.6431,  -10.1094,  -11.0183,  -11.8730,  -13.4411,  -14.9431,  -16.3404,  -17.6889,  -18.8814,
 10-AUG-2000 11:59:25.00,  999.0000,  999.0000,  999.0000,  999.0000,  999.0000,  999.0000,    0.0479,    0.7238,    1.3997,    1.8833,  999.0000,  999.0000,  999.0000,  999.0000,  999.0000,  999.0000,  999.0000,  999.0000,    2.2308,    2.2695,  999.0000,  999.0000,  999.0000,  999.0000,  999.0000,  999.0000,  999.0000,  999.0000,  999.0000,  999.0000,  999.0000,  999.0000,  999.0000,  999.0000,  999.0000,  999.0000,  999.0000,  999.0000,  999.0000,  999.0000,  999.0000,  999.0000,  999.0000,  999.0000,  999.0000,  999.0000,  999.0000,  999.0000,  999.0000,  999.0000,  999.0000,  999.0000,  999.0000,  999.0000,  999.0000,  999.0000,  999.0000,  999.0000,  999.0000,  999.0000,  999.0000,  999.0000,  999.0000,  999.0000,  999.0000,
